                ,  0.671,  0.819,  0.966,  1.114,  1.262,  1.410,  1.558,  1.705,  1.853,  2.001,  2.149,  2.297,  2.445,  2.592,  2.740,  2.888,  3.036,  3.184,  3.331,  3.479,  3.627,  3.775,  3.923,  4.070,  4.218,  4.366,  4.514,  4.662,  4.809,  4.957,  5.105,  5.253,  5.401,  5.549,  5.696,  5.844,  5.992,  6.140,  6.288,  6.435,  6.583,  6.731,  6.879,  7.027,  7.174,  7.322,  7.470,  7.618,  7.766,  7.914,  8.061,  8.209,  8.357,  8.505,  8.653,  8.800,  8.948,  9.096,  9.244,  9.392,  9.539,  9.687,  9.835
2000/09/16 00:00,  999.0,  999.0,  999.0,  999.0,  999.0,  999.0,  999.0,  999.0,  999.0,  999.0,  999.0,  999.0,  999.0,  999.0,  999.0,  999.0,  999.0,  999.0,  999.0,  999.0,  999.0,  999.0,  999.0,  999.0,  999.0,  999.0,  999.0,  999.0,  999.0,  999.0,  999.0,  999.0,  999.0,  999.0,  999.0,  999.0,  999.0,  999.0,  999.0,  999.0,  999.0,  999.0,  999.0,  999.0,  999.0,  999.0,  999.0,  999.0,  999.0,  999.0,  999.0,  999.0,  999.0,  999.0,  999.0,  999.0,  999.0,  999.0,  999.0,  999.0,  999.0,  999.0,  999.0
2000/09/16 00:10,   -7.1,   -9.3,   -9.9,   -9.0,   -9.9,   -9.0,   -7.9,   -6.1,   -4.6,   -3.0,   -2.2,   -2.5,   -2.9,   -3.2,   -4.4,   -4.4,   -4.4,   -4.3,   -3.2,   -1.9,   -2.1,   -2.6,   -2.6,   -2.3,   -2.6,   -4.3,  999.0,   -2.9,   -0.6,    0.2,    0.6,    0.8,    1.3,    1.9,    1.8,    0.2,    0.7,    1.2,    1.0,    0.4,   -0.3,   -0.5,   -0.0,    1.0,    2.0,    2.9,    2.6,    1.2,   -0.6,   -1.6,   -1.2,   -1.1,   -1.5,   -2.0,   -2.4,   -2.6,   -2.8,   -2.7,   -2.4,   -2.4,   -3.0,   -3.3,   -2.7
2000/09/16 00:20,   -7.3,  -10.5,  -11.2,  -10.0,   -8.8,   -7.7,   -6.3,   -4.9,   -4.8,   -5.3,   -5.5,   -3.3,   -3.4,   -2.3,   -2.7,   -3.7,   -3.9,   -3.9,   -3.6,   -3.9,   -4.5,   -4.4,   -4.8,   -4.9,   -4.3,   -4.8,   -3.0,   -5.3,   -4.3,   -3.4,   -2.7,   -1.5,   -0.4,    0.7,    1.5,    1.5,    1.3,    1.8,    2.0,    2.0,    1.0,    0.7,    1.4,    1.2,    0.2,   -0.1,   -0.7,   -1.1,   -2.3,   -2.2,   -3.4,   -2.8,   -3.0,   -2.6,   -3.0,   -2.8,   -2.6,   -2.3,   -2.2,   -1.9,  999.0,  999.0,  999.0
2000/09/16 00:30,   -6.7,   -9.3,   -9.0,   -8.4,   -7.9,   -8.7,   -8.7,   -8.9,   -8.9,   -8.4,   -7.8,   -6.2,   -5.9,   -5.4,   -5.3,   -5.7,   -5.1,   -4.9,   -5.0,   -4.3,   -3.8,   -3.6,   -3.9,   -4.3,   -4.2,   -3.3,   -3.2,   -3.7,   -3.2,   -2.5,   -1.9,   -0.8,    0.2,    0.6,    1.0,    1.5,    2.4,    3.2,    4.0,    3.8,    3.6,    3.7,    3.1,    2.0,    1.6,    2.0,    2.2,    2.2,    1.8,    1.0,    0.6,    0.0,   -0.3,   -0.6,   -0.8,  999.0,   -1.1,   -0.3,   -0.7,   -0.8,   -0.8,   -0.9,   -0.5
2000/09/16 00:40,   -7.4,  -10.2,   -9.5,   -8.3,   -8.1,   -8.3,   -8.3,   -7.4,   -6.9,   -6.8,   -6.1,   -5.4,   -5.1,   -5.1,   -4.0,   -3.8,   -3.8,   -3.5,   -3.3,   -3.1,   -2.7,   -2.8,   -3.1,   -3.8,   -4.8,   -4.5,   -3.7,   -4.1,   -4.4,   -4.0,   -3.6,   -2.6,   -1.5,    0.4,    1.6,    2.4,    2.3,    2.3,    2.9,    3.1,    3.7,    4.0,    4.0,    3.2,    2.9,    2.9,    2.1,    1.1,    0.8,    0.3,   -0.0,    0.0,    0.2,    0.9,    0.7,    0.5,    0.8,  999.0,  999.0,  999.0,  999.0,    0.9,    0.5
2000/09/16 00:50,   -7.7,   -7.8,   -7.7,   -8.4,   -7.9,   -8.0,   -7.6,   -7.5,   -7.0,   -7.1,   -7.1,   -6.4,   -5.9,   -5.8,   -7.1,   -6.4,   -5.6,   -4.7,   -4.8,   -4.8,   -5.2,   -6.0,  999.0,  999.0,   -7.0,  999.0,   -5.8,   -6.6,   -6.9,   -6.2,   -5.3,   -5.0,   -4.3,   -3.1,   -1.4,   -0.1,    0.9,    1.8,    1.8,    2.5,    2.7,    3.0,    3.2,    3.3,    3.6,    3.2,  999.0,  999.0,  999.0,  999.0,  999.0,  999.0,  999.0,  999.0,  999.0,  999.0,  999.0,  999.0,  999.0,  999.0,  999.0,  999.0,  999.0
2000/09/16 01:00,   -6.7,   -8.1,   -8.3,   -7.4,   -6.8,   -6.5,   -6.7,   -6.3,   -6.5,   -6.2,   -6.4,   -6.8,   -6.5,   -6.0,   -5.0,   -4.4,   -5.2,   -5.5,   -5.1,   -3.9,   -4.0,   -2.8,   -2.4,   -3.2,   -2.7,   -5.6,   -5.1,   -6.4,   -7.0,   -6.9,   -6.4,   -5.1,   -4.5,   -4.3,   -3.0,   -1.7,   -0.8,    0.1,    0.7,    1.3,    1.9,    2.1,    2.8,    3.7,    3.7,    3.7,  999.0,  999.0,  999.0,  999.0,  999.0,  999.0,  999.0,  999.0,  999.0,  999.0,  999.0,  999.0,  999.0,  999.0,  999.0,  999.0,  999.0
2000/09/16 01:10,   -5.7,   -7.9,   -7.3,   -7.2,   -6.3,   -6.1,   -5.3,   -4.7,   -4.0,   -4.9,   -5.1,   -4.4,   -3.6,   -3.9,   -4.4,   -3.6,   -4.0,   -1.8,   -1.0,   -1.9,   -1.9,   -1.1,    0.1,   -0.6,   -1.6,   -2.6,   -3.1,   -3.4,   -2.5,   -1.8,   -1.7,   -2.0,   -2.3,   -2.4,   -1.8,   -1.6,   -1.3,   -0.9,    0.3,    0.3,    1.6,    2.6,    2.6,    2.7,    2.3,    1.7,    1.9,    2.8,    3.1,    4.3,    0.9,  999.0,  999.0,  999.0,  999.0,  999.0,  999.0,  999.0,  999.0,  999.0,  999.0,  999.0,  999.0
2000/09/16 01:20,   -5.8,   -7.9,   -7.4,   -7.1,   -5.5,   -4.7,   -5.1,   -5.9,   -6.4,   -6.8,   -6.4,   -6.3,   -6.0,   -5.5,   -5.0,   -4.1,   -5.6,   -5.2,   -4.7,   -4.5,   -4.9,   -5.3,   -5.3,   -3.5,   -0.6,   -2.5,   -3.1,   -2.2,   -1.9,   -0.9,    0.2,    0.7,    0.9,    0.8,    0.2,   -0.5,   -1.5,   -2.2,   -1.9,   -1.1,   -0.5,   -0.2,   -0.7,   -1.0,  999.0,  999.0,  999.0,  999.0,  999.0,  999.0,  999.0,  999.0,  999.0,  999.0,  999.0,  999.0,  999.0,  999.0,  999.0,  999.0,  999.0,  999.0,  999.0
2000/09/16 01:30,   -7.1,   -8.5,   -7.5,   -6.6,   -5.3,   -4.9,   -4.5,   -4.7,   -4.7,   -4.4,   -5.1,   -5.7,   -6.0,   -6.0,   -6.3,   -6.6,   -6.3,   -6.1,   -6.5,   -6.5,   -6.2,   -5.4,   -5.0,   -5.4,   -6.1,   -5.6,  999.0,   -4.5,   -3.6,   -3.2,   -2.7,   -1.7,   -0.3,    1.2,    2.5,    3.1,    2.9,    2.7,    2.1,    1.8,    1.8,    1.4,    0.3,   -0.6,   -1.3,   -1.8,   -2.0,   -1.7,  999.0,  999.0,  999.0,  999.0,  999.0,  999.0,  999.0,  999.0,  999.0,  999.0,  999.0,  999.0,  999.0,  999.0,  999.0
2000/09/16 01:40,   -7.0,   -8.2,   -7.2,   -6.5,   -6.2,   -6.0,   -5.5,   -5.7,   -5.7,   -6.0,   -6.8,   -6.2,   -5.8,   -5.5,   -5.1,   -4.7,   -5.1,   -5.3,   -5.7,   -6.0,   -6.2,   -6.3,   -5.6,   -4.7,   -5.3,   -5.8,   -7.5,   -5.8,   -3.9,   -2.0,   -0.4,    0.3,   -0.1,   -0.6,   -1.2,   -1.0,    0.1,    1.4,    2.7,    2.2,    3.9,    3.8,    2.8,    2.3,    2.2,    1.6,    3.1,    1.8,  999.0,  999.0,    0.3,   -1.0,   -1.4,   -2.7,   -1.8,   -2.2,   -2.3,   -2.8,  999.0,  999.0,  999.0,  999.0,  999.0
2000/09/16 01:50,   -7.5,   -8.8,   -7.6,   -6.8,   -6.3,   -5.9,   -6.1,   -6.8,   -7.3,   -7.3,   -6.4,   -5.3,   -4.9,   -4.1,   -3.1,   -3.0,   -3.6,   -3.0,   -3.2,   -2.6,   -2.9,   -3.3,   -3.7,   -3.4,   -3.1,   -3.1,   -3.0,   -3.1,   -2.0,   -1.6,   -1.5,   -1.1,   -1.2,   -1.2,   -1.1,   -0.9,   -0.6,    1.0,    1.2,    2.0,    2.8,    2.2,    2.2,    1.3,    1.9,    1.6,    1.2,    1.1,    0.0,    0.3,   -0.0,   -0.8,   -1.4,   -0.2,   -1.2,   -2.5,   -2.7,   -3.4,   -2.5,  999.0,  999.0,  999.0,  999.0
2000/09/16 02:00,   -7.9,   -9.2,   -7.9,   -7.0,   -7.4,   -7.7,   -8.2,   -7.1,   -6.7,   -5.4,   -4.4,   -4.7,   -4.4,   -4.2,   -4.0,   -3.3,   -2.9,   -2.8,   -3.1,   -1.5,   -0.2,    0.6,    1.3,   -0.0,    1.2,    0.9,    1.6,  999.0,    1.5,    0.8,   -0.4,    0.2,    0.4,    0.8,    0.5,    1.4,    1.8,    2.6,    2.5,    1.9,    2.2,    2.5,    2.8,    2.0,    2.2,    1.3,    0.5,   -0.4,   -1.4,   -1.3,   -1.2,   -1.4,   -1.0,   -1.2,   -2.9,  999.0,  999.0,  999.0,  999.0,  999.0,  999.0,  999.0,  999.0
2000/09/16 02:10,   -8.1,   -9.1,   -7.8,   -8.0,   -8.0,   -8.1,   -7.5,   -7.0,   -6.8,   -7.2,   -5.9,   -5.8,   -5.5,   -5.3,   -5.2,   -4.1,   -3.9,   -2.4,   -0.0,    2.0,    3.6,    4.5,    4.0,    4.9,    6.8,    5.4,    3.9,    3.8,    3.0,    3.1,    3.8,    3.5,    5.3,    5.6,    6.2,    5.4,    6.0,    5.3,    5.8,    5.5,    5.0,    4.0,    3.2,    2.7,    2.4,    2.2,    1.4,    0.8,    0.8,    0.6,   -0.2,   -0.7,   -1.2,   -1.5,   -1.8,   -3.0,   -4.8,  999.0,  999.0,  999.0,  999.0,  999.0,  999.0
2000/09/16 02:20,   -8.6,  -10.0,   -9.1,   -7.9,   -7.4,   -6.9,   -6.4,   -5.2,   -5.4,   -5.4,   -5.3,   -5.1,   -4.5,   -3.8,   -3.0,   -2.2,   -1.6,   -0.9,    0.2,    2.1,    3.5,    4.4,    5.1,    5.4,    5.4,    5.1,    5.1,    4.6,    3.3,    3.4,    3.3,    3.5,    4.1,    4.4,    5.1,    5.9,    6.0,    6.2,    7.1,    7.3,    7.1,    6.1,    5.2,    4.3,    3.3,    1.8,    0.7,    0.4,   -0.1,   -0.5,   -0.8,   -1.1,   -0.8,   -0.7,   -1.0,   -1.3,   -1.8,   -1.3,   -2.3,   -2.2,  999.0,  999.0,  999.0
2000/09/16 02:30,   -8.7,   -9.6,   -9.1,   -7.7,   -6.1,   -5.3,   -5.2,   -5.1,   -4.8,   -4.9,   -5.0,   -5.0,   -4.7,   -3.9,   -3.0,   -2.4,   -2.1,   -1.5,    0.0,    2.5,    3.9,    4.4,    4.5,    5.4,    6.0,  999.0,    5.6,    6.3,    6.1,    6.2,    6.5,    5.7,    5.8,    6.5,    6.7,    6.8,    6.5,    6.5,    7.3,    7.6,    7.9,    8.0,    7.8,    7.1,    6.7,    5.4,    3.3,    1.5,   -0.1,   -1.3,   -1.8,   -2.9,   -3.5,   -5.1,   -4.8,   -4.0,   -4.1,   -4.0,   -4.2,   -4.9,  999.0,  999.0,  999.0
2000/09/16 02:40,   -9.0,   -9.5,   -8.6,   -7.1,   -6.4,   -6.2,   -5.6,   -5.3,   -5.4,   -5.5,   -4.5,   -4.1,   -3.8,   -3.8,   -3.5,   -2.3,   -1.7,   -0.8,   -0.2,    2.3,    3.6,    3.3,    4.5,    6.0,    7.0,    7.6,    6.8,    7.9,    9.3,    8.9,    8.5,    7.3,    5.3,    5.4,    7.2,    7.3,    6.9,    6.5,    7.0,    7.7,    8.4,    7.8,    7.6,    8.4,    6.9,    4.4,    2.7,    1.3,  999.0,   -2.5,   -3.6,   -4.1,   -3.2,   -3.5,   -3.1,   -4.0,   -4.0,   -4.5,   -4.3,   -4.9,  999.0,  999.0,  999.0
2000/09/16 02:50,   -9.2,   -9.3,   -8.3,   -7.0,   -6.2,   -5.2,   -5.9,   -6.6,   -6.7,   -5.5,   -5.2,   -4.4,   -4.5,   -3.0,   -1.3,   -1.4,   -0.5,    0.5,    1.7,    4.1,    4.2,    5.1,    5.9,    6.6,    7.7,    7.9,    7.3,    8.1,    8.3,    9.5,    9.7,    9.6,    7.5,    6.4,  999.0,    6.9,  999.0,    6.3,    6.0,    7.0,    7.8,    9.0,    9.8,   10.0,    8.1,    5.0,    3.4,  999.0,  999.0,  999.0,  999.0,  999.0,   -2.7,   -3.3,  999.0,  999.0,  999.0,  999.0,  999.0,  999.0,  999.0,  999.0,  999.0
2000/09/16 03:00,  -10.4,   -9.6,   -8.2,   -6.3,   -5.4,   -5.2,   -4.9,  999.0,  999.0,  999.0,  999.0,  999.0,   -5.7,   -3.8,   -2.9,   -2.2,   -1.0,    1.9,    4.8,    7.0,    6.9,    6.2,    6.7,    5.9,    6.2,    6.7,    5.8,    7.2,    8.1,    7.6,  999.0,  999.0,  999.0,  999.0,    5.3,    7.4,  999.0,  999.0,  999.0,  999.0,  999.0,    8.2,    8.9,    9.0,  999.0,  999.0,  999.0,  999.0,  999.0,  999.0,  999.0,  999.0,  999.0,  999.0,  999.0,  999.0,  999.0,  999.0,  999.0,  999.0,  999.0,  999.0,  999.0
2000/09/16 03:10,   -8.5,   -9.5,   -7.5,   -6.4,   -5.5,   -5.1,   -4.5,   -5.1,   -5.4,   -5.2,   -4.9,   -2.8,   -5.7,   -4.1,   -5.6,   -3.3,   -2.5,  999.0,  999.0,    4.2,    5.2,    5.1,    5.2,    3.9,  999.0,  999.0,  999.0,  999.0,  999.0,  999.0,  999.0,  999.0,  999.0,  999.0,  999.0,    7.6,    6.2,  999.0,  999.0,  999.0,  999.0,  999.0,  999.0,  999.0,    7.4,    5.4,    2.5,  999.0,    3.6,    3.1,    2.7,    0.4,   -1.9,   -4.4,   -5.1,   -6.1,   -5.9,   -5.3,  999.0,  999.0,  999.0,  999.0,  999.0
2000/09/16 03:20,   -4.8,  999.0,   -2.1,   -6.1,   -4.6,   -3.7,   -2.9,   -3.2,   -4.3,   -4.7,   -4.7,   -4.5,   -4.8,   -3.7,   -2.5,   -1.5,   -1.1,   -0.1,    0.2,    1.7,    2.3,    4.5,  999.0,  999.0,  999.0,  999.0,  999.0,  999.0,  999.0,  999.0,  999.0,  999.0,  999.0,  999.0,  999.0,  999.0,  999.0,  999.0,  999.0,  999.0,  999.0,  999.0,  999.0,  999.0,  999.0,  999.0,  999.0,  999.0,  999.0,  999.0,    2.1,    1.8,    0.1,   -1.4,   -2.3,   -3.3,   -4.1,   -4.3,  999.0,   -6.5,  999.0,  999.0,  999.0
2000/09/16 03:30,   -4.6,   -7.4,   -4.5,   -4.8,   -4.5,   -3.9,   -3.6,   -3.7,   -4.3,   -5.4,   -4.9,   -4.2,   -3.8,   -2.8,   -2.2,   -0.6,    1.2,    1.7,    2.6,  999.0,  999.0,    3.0,  999.0,  999.0,  999.0,  999.0,  999.0,  999.0,  999.0,  999.0,  999.0,  999.0,  999.0,  999.0,  999.0,  999.0,  999.0,  999.0,  999.0,  999.0,  999.0,  999.0,  999.0,  999.0,  999.0,  999.0,  999.0,  999.0,  999.0,  999.0,  999.0,  999.0,  999.0,  999.0,  999.0,  999.0,  999.0,  999.0,  999.0,  999.0,  999.0,  999.0,  999.0
2000/09/16 03:40,   -5.2,   -7.6,  999.0,   -4.9,   -4.2,   -3.9,   -3.6,   -4.0,   -4.7,   -4.8,   -5.0,   -4.1,   -3.6,   -3.5,   -2.9,   -1.7,   -0.2,   -0.7,    1.1,    1.4,    2.0,    2.3,    2.9,  999.0,  999.0,  999.0,  999.0,  999.0,  999.0,  999.0,  999.0,  999.0,  999.0,  999.0,  999.0,  999.0,  999.0,  999.0,  999.0,  999.0,  999.0,  999.0,  999.0,  999.0,  999.0,  999.0,  999.0,  999.0,  999.0,  999.0,  999.0,  999.0,  999.0,  999.0,  999.0,  999.0,  999.0,  999.0,  999.0,  999.0,  999.0,  999.0,  999.0
2000/09/16 03:50,   -6.5,   -8.2,   -5.5,   -5.2,   -4.9,   -4.3,   -4.3,   -4.2,   -3.7,   -4.5,   -3.7,   -3.5,   -2.8,   -2.2,   -1.3,   -0.5,    0.9,    1.6,    2.1,    3.0,    2.1,    1.8,  999.0,  999.0,  999.0,  999.0,  999.0,  999.0,  999.0,  999.0,  999.0,  999.0,  999.0,  999.0,  999.0,  999.0,  999.0,  999.0,  999.0,  999.0,  999.0,  999.0,  999.0,  999.0,  999.0,  999.0,  999.0,  999.0,  999.0,  999.0,  999.0,  999.0,  999.0,  999.0,  999.0,  999.0,  999.0,  999.0,  999.0,  999.0,  999.0,  999.0,  999.0
2000/09/16 04:00,   -5.6,   -7.9,   -6.3,   -5.9,   -4.9,   -4.4,   -3.5,   -3.7,   -3.8,   -3.6,   -3.5,   -2.7,   -0.9,    1.3,    1.1,    1.9,    1.7,    2.0,    2.2,    2.2,    1.7,    3.0,  999.0,  999.0,  999.0,  999.0,  999.0,  999.0,  999.0,  999.0,  999.0,  999.0,  999.0,  999.0,  999.0,  999.0,  999.0,  999.0,  999.0,  999.0,  999.0,  999.0,  999.0,  999.0,  999.0,  999.0,  999.0,  999.0,  999.0,  999.0,  999.0,  999.0,  999.0,  999.0,  999.0,  999.0,    0.6,  999.0,  999.0,  999.0,  999.0,  999.0,  999.0
2000/09/16 04:10,   -6.0,   -8.1,   -6.3,   -5.0,   -4.2,   -3.5,   -3.3,   -3.7,   -4.4,   -4.0,   -3.2,   -2.2,   -1.7,   -0.0,    1.2,    2.6,    3.3,    3.4,    3.2,    1.9,    1.4,    2.9,  999.0,  999.0,  999.0,  999.0,  999.0,  999.0,  999.0,  999.0,  999.0,  999.0,  999.0,  999.0,  999.0,  999.0,  999.0,  999.0,  999.0,  999.0,  999.0,  999.0,  999.0,  999.0,  999.0,  999.0,  999.0,  999.0,  999.0,  999.0,  999.0,  999.0,  999.0,  999.0,  999.0,  999.0,  999.0,  999.0,  999.0,  999.0,  999.0,  999.0,  999.0
2000/09/16 04:20,   -7.1,   -8.1,  999.0,   -5.4,   -4.9,   -4.2,   -3.3,   -4.1,   -4.4,   -4.3,   -3.9,   -3.5,   -2.8,   -2.0,   -1.7,   -1.6,   -1.0,    0.2,    0.7,    0.5,  999.0,    1.4,    2.6,    2.0,  999.0,  999.0,  999.0,  999.0,  999.0,  999.0,  999.0,  999.0,  999.0,  999.0,  999.0,  999.0,  999.0,  999.0,  999.0,  999.0,  999.0,  999.0,  999.0,  999.0,  999.0,  999.0,  999.0,  999.0,  999.0,  999.0,  999.0,  999.0,  999.0,  999.0,  999.0,  999.0,  999.0,  999.0,  999.0,  999.0,  999.0,  999.0,  999.0
2000/09/16 04:30,   -4.9,   -8.6,   -7.4,   -6.0,   -5.0,   -4.2,   -4.1,   -4.2,   -4.6,   -4.0,   -2.6,   -1.8,    0.1,    1.2,    2.0,    2.0,    2.1,    1.5,    1.2,    0.4,   -0.3,   -0.7,    0.8,    2.5,    3.5,    3.6,    2.8,  999.0,  999.0,  999.0,  999.0,  999.0,  999.0,  999.0,  999.0,  999.0,  999.0,  999.0,  999.0,  999.0,  999.0,  999.0,  999.0,  999.0,  999.0,  999.0,  999.0,  999.0,  999.0,  999.0,  999.0,  999.0,  999.0,  999.0,  999.0,  999.0,  999.0,  999.0,  999.0,  999.0,  999.0,  999.0,  999.0
2000/09/16 04:40,   -3.6,  999.0,   -6.1,   -5.6,   -5.3,   -5.0,   -4.1,   -3.5,   -2.6,   -1.0,    0.5,    1.5,    2.6,    3.5,    3.0,    3.2,    2.5,    2.4,    2.6,    1.8,    0.9,   -0.1,   -1.8,    0.3,    1.7,    2.3,  999.0,  999.0,  999.0,  999.0,  999.0,  999.0,  999.0,  999.0,  999.0,  999.0,  999.0,  999.0,  999.0,  999.0,  999.0,  999.0,  999.0,  999.0,  999.0,  999.0,  999.0,  999.0,  999.0,  999.0,  999.0,  999.0,  999.0,  999.0,  999.0,  999.0,  999.0,  999.0,  999.0,  999.0,  999.0,  999.0,  999.0
2000/09/16 04:50,   -4.8,  999.0,   -4.4,   -7.1,   -6.3,   -5.1,   -3.7,   -2.8,   -2.2,   -0.9,    1.3,    3.2,    3.8,    3.4,    3.1,    2.7,    1.6,    1.2,    2.0,    0.9,   -0.2,    0.5,    0.4,  999.0,    1.2,  999.0,  999.0,  999.0,  999.0,  999.0,  999.0,  999.0,  999.0,  999.0,  999.0,  999.0,  999.0,  999.0,  999.0,  999.0,  999.0,  999.0,  999.0,  999.0,  999.0,  999.0,  999.0,  999.0,  999.0,  999.0,  999.0,  999.0,  999.0,  999.0,  999.0,  999.0,  999.0,  999.0,  999.0,  999.0,  999.0,  999.0,  999.0
2000/09/16 05:00,  999.0,   -9.1,   -4.5,   -6.2,   -5.6,   -4.5,   -3.6,   -2.6,   -1.2,   -0.1,   -0.0,    0.7,    0.7,    0.7,    0.7,    0.1,   -0.1,    0.3,    0.4,    0.2,    0.3,   -0.1,  999.0,  999.0,    2.8,    2.7,  999.0,  999.0,  999.0,  999.0,  999.0,  999.0,  999.0,  999.0,  999.0,  999.0,  999.0,  999.0,  999.0,  999.0,  999.0,  999.0,  999.0,  999.0,  999.0,  999.0,  999.0,  999.0,  999.0,  999.0,  999.0,  999.0,  999.0,  999.0,  999.0,  999.0,  999.0,  999.0,  999.0,  999.0,  999.0,  999.0,  999.0
2000/09/16 05:10,   -4.7,   -8.3,   -4.4,   -5.4,   -4.7,   -4.2,   -3.7,   -2.3,   -1.9,   -1.0,   -0.9,   -0.3,    0.6,    1.7,    2.2,    2.2,    1.4,    0.6,    0.3,    1.0,    0.2,   -0.8,   -2.3,  999.0,    1.1,    3.3,    3.5,  999.0,  999.0,  999.0,  999.0,  999.0,  999.0,  999.0,  999.0,  999.0,  999.0,  999.0,  999.0,  999.0,  999.0,  999.0,  999.0,  999.0,  999.0,  999.0,  999.0,  999.0,  999.0,  999.0,  999.0,  999.0,  999.0,  999.0,  999.0,  999.0,  999.0,  999.0,  999.0,  999.0,  999.0,  999.0,  999.0
2000/09/16 05:20,   -5.8,  999.0,  999.0,   -6.7,   -6.0,   -4.7,   -3.4,   -2.9,   -1.4,   -1.0,   -0.2,    0.7,    1.8,    2.3,    2.2,    2.1,    1.4,    1.6,    2.3,    2.9,    2.8,    1.6,    1.9,    1.3,    1.8,    2.7,    3.2,    4.5,    4.4,  999.0,  999.0,    6.0,  999.0,  999.0,  999.0,  999.0,  999.0,  999.0,  999.0,  999.0,  999.0,  999.0,  999.0,  999.0,  999.0,  999.0,  999.0,  999.0,  999.0,  999.0,  999.0,  999.0,  999.0,  999.0,  999.0,  999.0,  999.0,  999.0,  999.0,  999.0,  999.0,  999.0,  999.0
2000/09/16 05:30,  999.0,  999.0,   -6.2,   -4.2,   -3.0,   -4.7,   -4.0,   -2.3,   -0.8,   -0.4,   -0.7,    0.3,    0.3,    0.9,    0.7,    0.4,    0.8,    0.3,    0.4,    0.5,    0.3,    0.5,    1.3,    0.9,    2.0,    2.8,    3.2,  999.0,    3.4,  999.0,    4.0,    6.2,  999.0,  999.0,  999.0,  999.0,  999.0,  999.0,  999.0,  999.0,  999.0,  999.0,  999.0,  999.0,  999.0,  999.0,  999.0,  999.0,  999.0,  999.0,  999.0,  999.0,  999.0,  999.0,  999.0,  999.0,  999.0,  999.0,  999.0,  999.0,  999.0,  999.0,  999.0
2000/09/16 05:40,  999.0,  999.0,   -4.7,   -5.7,   -4.7,   -3.7,   -2.0,   -1.8,   -1.0,   -0.7,    0.1,    0.4,   -0.1,    1.1,    1.2,    1.6,    1.2,    0.5,    0.1,    0.8,    1.4,    1.3,    0.7,    1.9,    2.1,    2.1,    1.4,    1.8,  999.0,  999.0,  999.0,  999.0,  999.0,  999.0,  999.0,  999.0,  999.0,  999.0,  999.0,  999.0,  999.0,  999.0,  999.0,  999.0,  999.0,  999.0,  999.0,  999.0,  999.0,  999.0,  999.0,  999.0,  999.0,  999.0,  999.0,  999.0,  999.0,  999.0,  999.0,  999.0,  999.0,  999.0,  999.0
2000/09/16 05:50,   -6.5,   -7.8,  999.0,   -6.6,   -5.6,   -4.2,   -3.0,   -2.3,   -0.8,   -0.3,   -1.7,  999.0,   -1.3,    0.2,    0.5,    0.9,    0.8,  999.0,  999.0,  999.0,    2.5,    2.5,  999.0,    1.4,    1.4,    1.1,    1.8,    3.4,    2.9,  999.0,    5.3,  999.0,  999.0,  999.0,  999.0,  999.0,  999.0,  999.0,  999.0,  999.0,  999.0,  999.0,  999.0,  999.0,  999.0,  999.0,  999.0,  999.0,  999.0,  999.0,  999.0,    2.5,  999.0,  999.0,  999.0,  999.0,    5.7,    5.6,  999.0,  999.0,  999.0,  999.0,  999.0
2000/09/16 06:00,   -4.5,   -7.0,   -4.7,   -6.7,   -5.0,   -4.2,   -4.2,   -4.1,   -2.3,   -2.1,   -1.4,   -2.3,   -2.4,   -2.8,   -1.3,    0.4,   -0.3,   -0.3,   -0.1,  999.0,  999.0,    2.4,    2.6,    2.1,    2.8,    2.9,  999.0,  999.0,  999.0,  999.0,  999.0,  999.0,  999.0,  999.0,  999.0,  999.0,  999.0,  999.0,  999.0,  999.0,  999.0,  999.0,  999.0,  999.0,  999.0,  999.0,  999.0,  999.0,  999.0,  999.0,  999.0,  999.0,  999.0,  999.0,  999.0,  999.0,  999.0,  999.0,  999.0,  999.0,  999.0,  999.0,  999.0
2000/09/16 06:10,   -3.4,   -6.7,   -7.2,   -6.7,   -5.3,   -3.9,   -3.1,   -1.9,   -1.3,   -2.0,   -0.9,   -0.9,   -1.0,   -0.8,   -0.4,    0.4,    0.8,   -0.0,   -0.6,   -0.4,    0.3,    0.7,    1.3,    0.9,    2.0,  999.0,  999.0,  999.0,  999.0,  999.0,  999.0,  999.0,  999.0,  999.0,  999.0,  999.0,  999.0,  999.0,  999.0,  999.0,  999.0,  999.0,  999.0,  999.0,  999.0,  999.0,  999.0,  999.0,  999.0,  999.0,  999.0,  999.0,  999.0,  999.0,  999.0,  999.0,  999.0,  999.0,  999.0,  999.0,  999.0,  999.0,  999.0
2000/09/16 06:20,  999.0,  999.0,  999.0,   -5.7,   -5.2,   -4.5,   -3.7,   -2.5,   -2.3,   -0.8,   -1.1,   -0.3,   -0.5,   -0.5,    0.2,    0.4,    0.8,   -0.0,    0.5,    0.4,   -0.2,  999.0,    1.4,    1.4,    2.7,  999.0,  999.0,  999.0,  999.0,  999.0,  999.0,  999.0,  999.0,  999.0,  999.0,  999.0,  999.0,  999.0,  999.0,  999.0,  999.0,  999.0,  999.0,  999.0,  999.0,  999.0,  999.0,  999.0,  999.0,  999.0,  999.0,  999.0,  999.0,  999.0,  999.0,  999.0,  999.0,  999.0,  999.0,  999.0,  999.0,  999.0,  999.0
2000/09/16 06:30,  999.0,   -5.3,   -5.9,   -5.6,   -5.7,   -4.6,   -3.6,   -2.9,   -2.1,   -1.8,   -1.5,   -1.8,   -1.7,   -0.9,    0.3,    0.3,   -0.6,   -0.1,   -0.4,   -0.6,   -1.0,  999.0,  999.0,  999.0,  999.0,    0.6,    2.5,  999.0,    3.8,    5.0,    6.1,  999.0,  999.0,  999.0,  999.0,  999.0,  999.0,  999.0,  999.0,  999.0,  999.0,  999.0,  999.0,  999.0,  999.0,  999.0,  999.0,  999.0,  999.0,  999.0,  999.0,  999.0,  999.0,  999.0,  999.0,  999.0,  999.0,  999.0,  999.0,  999.0,  999.0,  999.0,  999.0
2000/09/16 06:40,   -3.4,   -6.0,   -5.3,   -5.9,   -5.6,   -4.8,   -3.5,   -2.8,   -1.7,   -1.6,   -1.4,   -1.4,   -1.3,   -0.4,   -0.7,   -0.2,    0.5,    1.2,    1.8,    1.7,    1.6,    2.1,    1.6,    1.3,  999.0,    1.2,    1.4,    1.1,    2.2,    3.4,    4.1,  999.0,  999.0,  999.0,  999.0,  999.0,  999.0,  999.0,  999.0,  999.0,  999.0,  999.0,  999.0,  999.0,  999.0,  999.0,  999.0,  999.0,  999.0,  999.0,  999.0,  999.0,  999.0,  999.0,  999.0,  999.0,  999.0,  999.0,  999.0,  999.0,  999.0,  999.0,  999.0
2000/09/16 06:50,   -5.2,   -8.3,  999.0,   -5.0,  -13.3,   -3.9,   -3.9,   -4.7,   -0.6,   -3.2,   -6.5,  -11.3,   -5.2,   -0.7,   -0.8,   -0.4,   -0.1,    1.0,    0.8,    1.3,    1.4,    1.2,    1.6,    1.4,    1.3,    2.6,    1.9,    1.9,  999.0,  999.0,  999.0,    4.5,  999.0,  999.0,  999.0,  999.0,  999.0,  999.0,  999.0,  999.0,  999.0,  999.0,  999.0,  999.0,  999.0,  999.0,  999.0,  999.0,  999.0,  999.0,  999.0,  999.0,  999.0,  999.0,  999.0,  999.0,  999.0,  999.0,  999.0,  999.0,  999.0,  999.0,  999.0
2000/09/16 07:00,   -4.1,   -8.2,   -3.2,   -6.4,    3.9,    4.4,   -1.8,    6.1,    9.5,    3.6,    1.8,   -1.4,    2.1,   -0.4,    2.1,   -3.8,   -6.8,   -5.7,   -8.3,   -2.3,   -3.6,   -3.5,    0.0,    0.7,    1.0,    1.4,    2.2,    4.5,  999.0,  999.0,  999.0,  999.0,  999.0,  999.0,  999.0,  999.0,  999.0,  999.0,  999.0,  999.0,  999.0,  999.0,  999.0,  999.0,  999.0,  999.0,  999.0,  999.0,  999.0,  999.0,  999.0,  999.0,  999.0,  999.0,  999.0,  999.0,  999.0,  999.0,  999.0,  999.0,  999.0,  999.0,  999.0
2000/09/16 07:10,   -4.9,    1.2,   -5.9,   -0.5,   -5.9,   -4.9,   -5.3,   -7.9,   -6.3,   -2.5,   -2.3,   -2.8,   -1.4,   -1.7,   -0.6,    0.2,    0.4,   -2.7,   -3.8,    2.0,   -5.2,   -0.6,    0.1,  999.0,  999.0,  999.0,  999.0,   -0.9,    3.6,    4.4,  999.0,  999.0,    5.4,  999.0,  999.0,  999.0,  999.0,  999.0,  999.0,  999.0,  999.0,  999.0,  999.0,  999.0,  999.0,  999.0,  999.0,  999.0,  999.0,  999.0,  999.0,    3.8,  999.0,  999.0,  999.0,  999.0,  999.0,  999.0,  999.0,  999.0,  999.0,  999.0,  999.0
2000/09/16 07:20,   -5.6,   -7.0,   -0.7,   -6.7,   -5.4,   -5.0,   -4.2,   -3.5,   -1.0,   -0.6,   -0.4,   -1.5,    6.3,    5.5,  999.0,    4.2,    7.6,    3.4,    7.6,    8.3,    9.5,    9.0,  999.0,    8.2,  999.0,   13.2,  999.0,    7.2,    6.2,  999.0,    7.1,    6.4,    5.8,    5.7,  999.0,  999.0,  999.0,  999.0,  999.0,  999.0,  999.0,  999.0,  999.0,  999.0,  999.0,  999.0,  999.0,  999.0,  999.0,  999.0,  999.0,  999.0,  999.0,  999.0,  999.0,  999.0,  999.0,  999.0,  999.0,  999.0,  999.0,  999.0,  999.0
2000/09/16 07:30,   -4.4,   -6.5,   -5.4,   -6.7,   -5.4,   -4.4,   -3.1,   -2.9,   -2.7,   -2.6,   -2.4,   -3.1,   -2.1,   -1.7,   -0.3,   -1.8,   -1.4,   -1.1,   -1.0,   -1.5,   -1.6,   -0.4,   -0.0,  999.0,  999.0,  999.0,  999.0,  999.0,    2.7,  999.0,    6.1,    6.8,  999.0,  999.0,  999.0,  999.0,  999.0,  999.0,  999.0,  999.0,  999.0,  999.0,  999.0,  999.0,  999.0,  999.0,  999.0,  999.0,  999.0,  999.0,  999.0,  999.0,  999.0,  999.0,  999.0,  999.0,  999.0,  999.0,  999.0,  999.0,  999.0,  999.0,  999.0
2000/09/16 07:40,   -5.3,   -7.7,   -7.5,   -6.4,   -5.3,   -4.9,   -4.6,   -3.6,   -2.9,   -3.3,   -3.5,   -2.3,   -3.6,   -2.4,   -2.0,   -0.5,    0.6,    1.5,    1.3,    1.1,    1.1,    1.2,    0.6,   -0.1,  999.0,  999.0,  999.0,    2.1,  999.0,  999.0,    4.7,  999.0,  999.0,  999.0,  999.0,  999.0,  999.0,  999.0,  999.0,  999.0,  999.0,  999.0,  999.0,  999.0,  999.0,  999.0,  999.0,  999.0,  999.0,  999.0,  999.0,  999.0,  999.0,  999.0,  999.0,  999.0,  999.0,  999.0,  999.0,  999.0,  999.0,  999.0,  999.0
2000/09/16 07:50,   -5.2,   -7.7,   -7.2,   -7.0,   -5.7,   -5.4,   -4.7,   -4.2,   -4.3,   -4.5,   -3.8,   -4.0,   -3.5,   -3.7,   -2.8,   -2.2,   -1.8,    0.1,    0.1,    1.4,    1.3,    0.8,    1.1,  999.0,  999.0,  999.0,  999.0,  999.0,  999.0,  999.0,  999.0,  999.0,  999.0,  999.0,  999.0,  999.0,  999.0,  999.0,  999.0,  999.0,  999.0,  999.0,  999.0,  999.0,  999.0,  999.0,  999.0,  999.0,  999.0,  999.0,  999.0,  999.0,  999.0,  999.0,  999.0,  999.0,  999.0,  999.0,  999.0,  999.0,  999.0,  999.0,  999.0
2000/09/16 08:00,   -5.8,   -8.4,   -4.8,   -7.5,   -5.7,   -3.0,   -4.9,   -3.3,   -4.1,   -3.8,   -2.9,   -2.2,   -3.1,   -3.0,   -3.6,   -3.8,   -3.6,   -4.3,   -2.8,   -2.5,   -2.0,   -1.5,   -1.2,  999.0,   -0.0,   -0.1,  999.0,    1.7,  999.0,  999.0,  999.0,  999.0,  999.0,  999.0,  999.0,  999.0,  999.0,  999.0,  999.0,  999.0,  999.0,  999.0,  999.0,  999.0,  999.0,  999.0,  999.0,  999.0,  999.0,  999.0,  999.0,  999.0,  999.0,  999.0,  999.0,  999.0,  999.0,  999.0,  999.0,  999.0,  999.0,  999.0,  999.0
2000/09/16 08:10,  999.0,   -9.0,   -5.1,   -6.9,   -5.6,   -5.9,   -1.7,   -2.4,    0.3,   -1.4,   -2.6,   -0.3,   -2.3,   -2.1,    2.5,    0.1,    2.7,   -2.2,   -6.0,   -8.6,   -3.8,   -2.3,   -3.0,   -1.7,   -3.8,   -5.4,   -4.0,   -4.3,   -4.8,   -1.1,    3.1,    0.3,  999.0,  999.0,  999.0,  999.0,  999.0,  999.0,  999.0,  999.0,  999.0,  999.0,  999.0,  999.0,  999.0,  999.0,  999.0,  999.0,  999.0,  999.0,  999.0,  999.0,  999.0,  999.0,  999.0,  999.0,  999.0,  999.0,  999.0,  999.0,  999.0,  999.0,  999.0
2000/09/16 08:20,   -5.7,   -8.0,   -7.6,   -6.7,   -5.8,   -4.7,   -4.3,   -3.0,   -3.1,   -2.8,   -2.4,   -2.5,   -3.5,   -2.7,   -2.8,   -2.3,   -2.7,   -3.3,   -3.4,   -2.3,   -1.9,   -1.1,   -3.9,   -0.0,  999.0,    0.8,  999.0,  999.0,    3.7,    4.8,  999.0,    2.3,  999.0,  999.0,  999.0,  999.0,  999.0,  999.0,  999.0,  999.0,  999.0,  999.0,  999.0,  999.0,  999.0,  999.0,  999.0,  999.0,  999.0,  999.0,  999.0,  999.0,  999.0,  999.0,  999.0,  999.0,  999.0,  999.0,  999.0,  999.0,  999.0,    0.1,  999.0
2000/09/16 08:30,  999.0,   -7.7,   -6.9,   -6.9,   -5.7,   -4.8,   -4.5,   -4.0,   -3.8,   -3.5,   -2.9,   -2.8,   -2.4,   -2.5,   -2.0,   -2.2,   -2.4,   -3.2,   -3.5,   -3.4,   -2.9,   -2.8,   -2.5,   -1.5,   -0.2,    0.9,  999.0,  999.0,  999.0,    3.9,    5.3,  999.0,  999.0,  999.0,  999.0,  999.0,  999.0,  999.0,  999.0,  999.0,  999.0,  999.0,  999.0,  999.0,  999.0,  999.0,  999.0,  999.0,  999.0,  999.0,  999.0,    3.4,    2.7,    2.9,    1.8,    1.3,    0.9,    1.5,    1.5,  999.0,    2.4,  999.0,    0.4
2000/09/16 08:40,  999.0,   -8.8,   -7.9,   -7.2,   -8.3,   -3.6,   -5.9,   -5.9,   -5.3,   -4.5,   -7.0,   -5.9,   -6.2,   -5.1,   -2.6,  999.0,   -2.1,   -2.8,   -3.1,   -2.1,   -2.9,  999.0,   -0.4,    1.4,    0.6,  999.0,  999.0,  999.0,  999.0,  999.0,   -1.1,    6.5,  999.0,  999.0,  999.0,  999.0,  999.0,  999.0,  999.0,  999.0,  999.0,  999.0,  999.0,    7.9,    5.8,    4.7,    3.9,    2.5,    2.0,    1.9,    1.8,  999.0,    1.8,    1.4,    1.7,    0.6,    1.9,    3.4,    3.8,    3.7,    3.4,    2.5,    1.9
2000/09/16 08:50,   -5.8,   -8.3,   -7.2,   -8.4,   -8.1,   -6.7,   -6.0,   -5.5,   -5.7,   -4.6,   -3.4,   -2.8,   -1.8,   -1.7,   -0.9,    0.1,    0.5,    0.9,    0.1,   -0.7,   -1.7,   -1.5,   -1.2,    0.4,    1.4,    0.9,  999.0,    2.8,    4.8,    5.1,    4.8,    5.8,  999.0,  999.0,  999.0,  999.0,  999.0,  999.0,  999.0,  999.0,  999.0,  999.0,  999.0,  999.0,  999.0,    6.9,    6.5,    5.6,    4.9,    3.8,    3.3,    2.0,    2.3,    1.9,    1.4,    1.2,    1.1,    2.2,    3.1,    3.6,    3.3,    2.8,    1.9
2000/09/16 09:00,   -5.5,   -9.1,   -8.9,   -8.5,   -7.2,   -6.3,   -6.1,   -6.1,   -5.9,   -5.1,   -3.6,   -3.5,   -3.6,   -3.3,   -3.3,   -1.6,   -1.2,   -0.0,    1.4,    3.2,    4.0,    2.6,    1.2,   -0.3,   -0.8,   -1.2,  999.0,  999.0,    4.6,    4.0,  999.0,  999.0,  999.0,  999.0,  999.0,  999.0,  999.0,  999.0,  999.0,  999.0,  999.0,  999.0,  999.0,  999.0,    7.2,    7.1,    6.8,    6.2,    4.7,    3.7,    3.1,    2.7,    2.1,    1.3,    1.1,    0.8,    1.2,    1.7,    2.5,    3.3,    3.7,    3.3,    3.2
2000/09/16 09:10,   -9.1,   -9.9,   -9.7,   -9.0,   -9.3,   -7.5,   -5.9,   -4.2,   -7.7,   -5.1,   -6.9,   -6.4,   -4.6,   -2.0,   -2.6,   -4.6,  999.0,  -12.8,  -19.6,  -11.9,  -17.3,  -18.5,  -13.3,  -15.6,  -12.8,  999.0,   -9.2,    0.7,   -0.2,    0.4,    1.1,    1.3,    1.1,    1.7,    1.9,    2.8,    3.4,  999.0,  999.0,  999.0,  999.0,  999.0,    8.3,  999.0,   12.4,   10.7,    9.7,    8.8,    5.9,    2.9,    0.9,    0.7,    0.7,    0.7,    0.2,   -0.1,   -0.3,   -0.1,  999.0,  999.0,    3.5,    2.4,    2.2
2000/09/16 09:20,   -8.3,  -10.2,  -11.2,   -8.8,   -9.6,   -6.9,   -4.7,   -7.5,   -4.6,   -8.3,  -10.1,   -8.5,   -8.4,   -5.3,   -2.7,   -3.1,   -4.4,   -2.9,   -3.0,   -6.6,   -4.0,   -6.5,   -5.2,   -3.5,    1.4,   -0.3,    3.7,    1.9,    5.3,    8.0,    7.0,    7.9,    7.7,    7.4,    4.7,    7.6,    4.8,  999.0,  999.0,  999.0,  999.0,  999.0,    3.9,    5.4,    7.5,    7.9,    7.2,    7.5,    6.7,    5.7,    5.0,    3.8,    3.5,    3.5,    3.4,    2.8,    1.9,    0.8,    0.6,    0.1,   -0.1,    0.0,    0.6
2000/09/16 09:30,   -7.8,   -8.7,   -8.2,   -6.6,   -5.3,   -5.6,   -5.4,   -5.4,   -4.7,   -5.1,   -4.7,   -4.8,   -4.4,   -4.0,   -4.3,   -4.5,   -5.1,   -4.7,   -4.1,   -3.6,   -2.6,   -0.9,   -0.2,    1.0,    0.8,    0.2,    1.9,    2.0,    1.8,    1.4,    2.7,    2.2,    5.5,    6.7,    6.5,  999.0,  999.0,   10.4,   10.0,    9.1,    8.0,    8.2,    8.5,    9.3,    9.2,    8.2,    7.5,    6.7,    4.5,    2.5,    2.1,    2.1,    2.8,    3.1,    2.5,    2.7,    2.9,    2.3,    1.9,    1.8,    1.6,    1.8,    2.5
2000/09/16 09:40,   -7.9,   -8.3,   -9.3,   -6.9,   -6.7,   -7.1,   -6.7,   -6.3,   -5.5,   -5.3,   -4.5,   -3.5,   -3.4,   -2.6,   -2.5,   -2.7,   -3.2,   -3.7,   -3.3,   -1.9,   -1.2,   -0.2,    0.1,    1.3,    2.0,    2.3,    2.3,    2.0,    1.7,    1.6,    3.6,    4.5,    4.9,    5.3,    6.5,    7.3,    7.9,    8.5,    8.5,    9.0,    9.2,    9.7,    9.8,   10.0,   10.1,    9.9,    8.2,    5.2,    2.1,    1.3,    1.6,    2.1,    1.3,    0.8,    0.9,   -0.2,   -0.6,   -0.7,   -0.7,   -0.4,   -0.4,    0.0,    0.5
2000/09/16 09:50,   -7.6,   -9.2,  -10.1,  -11.2,   -9.7,   -8.1,   -7.5,   -6.2,   -5.7,   -5.4,   -4.2,   -3.7,   -4.3,   -4.3,   -5.5,   -4.7,   -4.3,   -3.6,   -3.4,   -2.8,   -3.3,   -2.4,    1.5,   -0.3,   -0.2,    1.6,    1.7,    3.1,    3.5,    3.3,    5.6,    6.5,    7.2,    7.4,    9.0,    9.5,   10.0,    9.8,    8.5,    7.3,    7.3,    7.9,    8.1,    8.5,    9.2,    9.3,    8.3,    7.1,    5.4,    4.0,    2.4,    2.2,    1.6,    1.5,    1.5,    0.7,    0.1,   -0.5,   -0.2,   -0.6,   -0.6,    0.4,    0.8
2000/09/16 10:00,   -7.8,   -9.0,   -9.9,  -11.0,   -9.8,   -7.6,   -5.1,   -6.4,   -6.3,   -5.9,   -4.9,   -4.7,   -4.9,   -3.7,   -4.9,   -6.9,   -8.0,   -7.7,   -8.2,   -6.4,   -5.8,   -3.6,   -2.6,   -1.3,   -2.0,    0.8,    0.5,    0.8,    0.5,    0.2,    0.7,  999.0,  999.0,  999.0,  999.0,  999.0,  999.0,  999.0,  999.0,  999.0,  999.0,  999.0,  999.0,    9.1,  999.0,  999.0,  999.0,  999.0,  999.0,    5.5,    4.8,    4.3,    3.2,    4.1,    4.2,    4.7,    3.9,    2.7,    2.1,  999.0,    2.4,    2.5,    2.0
2000/09/16 10:10,  999.0,  -11.7,  -12.0,  -12.3,  -13.5,   -7.2,   -7.8,   -7.8,  -10.0,  -20.2,  -17.0,  -12.8,  -13.1,  -12.1,  -15.4,   -8.8,   -8.9,   -6.5,   -7.5,    0.9,   -0.5,    2.2,    2.3,  999.0,  999.0,  999.0,    3.2,    1.4,  999.0,  999.0,  999.0,  999.0,  999.0,  999.0,  999.0,  999.0,  999.0,  999.0,  999.0,  999.0,  999.0,  999.0,  999.0,  999.0,  999.0,  999.0,  999.0,    9.6,    7.6,    6.1,    6.0,    5.8,    5.0,    4.2,    2.8,    4.2,    4.2,    3.5,  999.0,    3.1,    2.6,  999.0,  999.0
2000/09/16 10:20,   -3.1,   -4.2,   -8.5,   -7.3,   -7.2,   -6.6,   -6.3,   -6.0,   -5.6,   -6.4,   -5.8,   -5.7,   -5.1,   -4.6,   -4.0,   -3.2,   -1.4,    0.2,    1.9,    2.3,    2.6,    3.3,    3.1,  999.0,  999.0,    4.8,    4.1,    4.0,    3.9,    5.5,    3.8,  999.0,  999.0,  999.0,  999.0,  999.0,  999.0,  999.0,  999.0,  999.0,  999.0,  999.0,  999.0,  999.0,    6.9,  999.0,    9.2,    9.2,    8.6,    7.9,  999.0,    7.6,    7.0,    4.5,    2.7,    2.5,    3.5,    3.0,    3.0,  999.0,  999.0,  999.0,  999.0
2000/09/16 10:30,   -3.4,   -6.1,   -7.1,   -6.4,   -7.2,   -6.8,   -6.7,   -6.6,   -6.0,   -5.2,   -4.2,   -4.3,   -4.4,   -3.9,   -3.7,   -3.2,   -2.8,   -0.6,   -0.2,    0.6,    2.1,    3.4,    4.2,    3.7,    3.6,  999.0,  999.0,  999.0,  999.0,  999.0,  999.0,  999.0,  999.0,  999.0,  999.0,  999.0,  999.0,  999.0,  999.0,  999.0,  999.0,  999.0,  999.0,  999.0,  999.0,  999.0,  999.0,  999.0,    9.5,    8.5,    6.4,    5.7,    5.7,    4.4,  999.0,  999.0,  999.0,    1.6,  999.0,    2.5,  999.0,  999.0,  999.0
2000/09/16 10:40,   -2.2,   -5.8,   -6.1,   -7.9,   -7.8,   -7.4,   -7.3,   -7.5,   -6.7,   -5.8,   -5.2,   -4.4,   -3.8,   -4.1,   -3.9,   -3.6,   -2.3,   -2.2,   -1.4,   -0.5,   -0.1,    0.9,    1.1,    0.4,    2.0,    2.8,    3.9,  999.0,  999.0,  999.0,  999.0,  999.0,  999.0,  999.0,  999.0,  999.0,  999.0,  999.0,  999.0,  999.0,  999.0,  999.0,  999.0,  999.0,  999.0,  999.0,  999.0,  999.0,  999.0,  999.0,    5.1,    4.7,    3.4,    4.2,    4.0,    2.2,    0.5,    1.1,    2.0,    3.2,    3.3,    1.6,   -0.3
2000/09/16 10:50,   -3.4,   -6.7,   -6.9,   -6.3,   -7.6,   -6.8,   -5.6,   -3.4,   -6.6,   -6.2,   -5.7,   -5.0,   -4.9,   -2.5,   -1.9,   -1.3,   -2.9,   -2.3,   -2.1,  999.0,    0.4,   -0.7,    1.2,   -0.2,    0.6,    1.9,    3.2,    3.3,    4.2,  999.0,  999.0,  999.0,  999.0,  999.0,  999.0,  999.0,  999.0,  999.0,  999.0,  999.0,  999.0,  999.0,  999.0,  999.0,  999.0,  999.0,  999.0,  999.0,  999.0,  999.0,  999.0,  999.0,  999.0,  999.0,    4.6,    4.9,    4.5,    4.3,    4.4,    4.0,    4.1,    3.4,    2.4
2000/09/16 11:00,   -8.1,   -9.1,  -11.6,   -8.1,   -8.2,   -8.0,   -8.1,   -8.1,   -9.5,   -4.2,   -5.2,   -4.6,   -5.3,   -3.6,   -2.0,   -1.5,   -1.2,   -4.7,   -1.8,   -1.9,    0.8,   -0.1,    1.5,    2.4,    3.1,    4.0,    4.7,    4.9,    5.6,  999.0,  999.0,  999.0,  999.0,  999.0,  999.0,  999.0,  999.0,  999.0,  999.0,  999.0,  999.0,  999.0,  999.0,  999.0,  999.0,  999.0,  999.0,  999.0,  999.0,  999.0,  999.0,  999.0,  999.0,  999.0,  999.0,  999.0,  999.0,    4.2,    6.0,    4.9,    1.3,    1.7,    0.4
2000/09/16 11:10,   -3.2,   -6.1,   -6.5,   -7.5,   -6.0,   -5.7,   -5.5,   -5.6,   -5.1,   -4.9,   -4.8,   -4.6,   -4.6,   -4.5,   -3.2,   -2.1,   -1.2,   -1.2,   -1.9,   -1.1,   -0.0,    0.7,    2.4,    3.3,    3.9,  999.0,  999.0,  999.0,  999.0,  999.0,  999.0,  999.0,  999.0,  999.0,  999.0,  999.0,  999.0,  999.0,  999.0,  999.0,  999.0,  999.0,  999.0,  999.0,  999.0,  999.0,  999.0,  999.0,  999.0,  999.0,  999.0,  999.0,  999.0,  999.0,  999.0,  999.0,  999.0,  999.0,    7.5,    6.5,    6.1,    6.0,    4.1
2000/09/16 11:20,   -5.4,   -6.5,   -7.4,   -7.1,   -6.9,   -7.0,   -7.0,   -7.0,   -6.4,   -5.7,   -5.2,   -4.8,   -4.3,   -3.5,   -1.5,   -0.5,   -0.4,   -0.3,    0.1,    1.3,    2.5,    3.5,    3.5,    3.4,    4.3,  999.0,  999.0,  999.0,  999.0,  999.0,  999.0,  999.0,  999.0,  999.0,  999.0,  999.0,  999.0,  999.0,  999.0,  999.0,  999.0,  999.0,  999.0,  999.0,  999.0,  999.0,  999.0,  999.0,  999.0,  999.0,  999.0,  999.0,  999.0,  999.0,  999.0,  999.0,  999.0,  999.0,  999.0,  999.0,  999.0,  999.0,  999.0
2000/09/16 11:30,   -4.1,   -4.2,   -8.6,   -6.7,   -5.7,   -5.3,   -4.2,   -4.3,   -3.9,   -4.1,   -3.8,   -3.0,   -2.4,   -1.5,   -1.3,   -0.6,    0.0,    0.5,    0.3,   -0.5,    0.8,  999.0,  999.0,  999.0,  999.0,  999.0,  999.0,  999.0,  999.0,  999.0,  999.0,  999.0,  999.0,  999.0,  999.0,  999.0,  999.0,  999.0,  999.0,  999.0,  999.0,  999.0,  999.0,  999.0,  999.0,  999.0,  999.0,  999.0,  999.0,  999.0,  999.0,  999.0,  999.0,  999.0,  999.0,  999.0,  999.0,  999.0,  999.0,  999.0,  999.0,  999.0,  999.0
2000/09/16 11:40,  999.0,   -3.6,  999.0,   -7.1,   -5.1,   -4.5,   -4.3,   -4.6,   -5.4,   -5.7,   -5.5,   -5.1,   -4.3,   -1.2,   -0.8,   -0.3,    0.9,    1.1,    0.9,    1.2,    1.8,    2.3,  999.0,  999.0,  999.0,  999.0,  999.0,  999.0,  999.0,  999.0,  999.0,  999.0,  999.0,  999.0,  999.0,  999.0,  999.0,  999.0,  999.0,  999.0,  999.0,  999.0,  999.0,  999.0,  999.0,  999.0,  999.0,  999.0,  999.0,  999.0,  999.0,  999.0,  999.0,  999.0,  999.0,  999.0,  999.0,  999.0,  999.0,  999.0,  999.0,  999.0,  999.0
2000/09/16 11:50,   -1.7,   -5.0,   -2.8,   -7.2,   -6.1,   -7.0,   -5.4,   -7.7,   -8.2,   -6.7,   -6.2,   -5.7,   -4.5,   -2.9,   -0.9,    0.2,    0.3,    1.1,    0.9,    1.2,    1.7,    2.2,    1.7,    3.0,    3.4,  999.0,  999.0,  999.0,  999.0,  999.0,  999.0,  999.0,  999.0,  999.0,  999.0,  999.0,  999.0,  999.0,  999.0,  999.0,  999.0,  999.0,  999.0,  999.0,  999.0,  999.0,  999.0,  999.0,  999.0,  999.0,  999.0,  999.0,  999.0,  999.0,  999.0,  999.0,  999.0,  999.0,  999.0,  999.0,  999.0,  999.0,  999.0
2000/09/16 12:00,  999.0,   -6.9,   -8.7,   -7.7,  -12.1,   -6.1,   -5.8,   -6.4,  999.0,   -6.6,  999.0,   -4.6,   -2.9,   -8.8,   -3.6,   -1.6,   -0.5,   -3.0,    0.2,   -2.7,   -7.1,   -8.5,  999.0,   -0.2,    1.3,  999.0,    4.4,    6.7,    9.6,  999.0,  999.0,    5.6,    5.8,    6.0,    5.7,  999.0,  999.0,  999.0,  999.0,  999.0,  999.0,  999.0,  999.0,  999.0,  999.0,  999.0,  999.0,  999.0,  999.0,  999.0,  999.0,  999.0,  999.0,  999.0,  999.0,  999.0,  999.0,  999.0,  999.0,  999.0,  999.0,  999.0,  999.0
2000/09/16 12:10,   -2.1,   -3.3,  999.0,  999.0,  999.0,   -3.0,   -2.2,   -2.5,   -3.3,   -3.5,   -4.8,   -5.7,   -5.4,   -5.4,   -5.3,   -3.7,   -3.1,   -1.0,   -0.3,    0.8,    0.9,    2.6,  999.0,  999.0,  999.0,  999.0,  999.0,    2.0,  999.0,  999.0,  999.0,  999.0,  999.0,  999.0,  999.0,  999.0,  999.0,  999.0,  999.0,  999.0,  999.0,  999.0,  999.0,  999.0,  999.0,  999.0,  999.0,  999.0,  999.0,  999.0,  999.0,  999.0,  999.0,  999.0,  999.0,  999.0,  999.0,  999.0,  999.0,  999.0,  999.0,  999.0,  999.0
2000/09/16 12:20,  999.0,   -3.2,   -6.6,   -5.3,   -4.0,   -4.3,   -3.4,   -2.7,   -3.4,   -3.5,   -3.5,   -3.0,   -3.0,   -2.5,   -0.3,    0.5,    0.6,    1.8,    2.1,    3.1,    3.8,  999.0,  999.0,  999.0,  999.0,  999.0,  999.0,  999.0,  999.0,  999.0,  999.0,  999.0,  999.0,  999.0,  999.0,  999.0,  999.0,  999.0,  999.0,  999.0,  999.0,  999.0,  999.0,  999.0,  999.0,  999.0,  999.0,  999.0,  999.0,  999.0,  999.0,  999.0,  999.0,  999.0,  999.0,  999.0,  999.0,  999.0,  999.0,  999.0,  999.0,  999.0,  999.0
2000/09/16 12:30,   -0.3,   -3.9,   -6.3,   -5.1,   -4.1,   -3.7,   -3.3,   -3.2,   -3.0,   -3.6,  999.0,   -3.4,   -2.4,   -0.8,    0.7,    0.6,    0.4,    0.9,    0.7,    1.3,    2.3,    3.5,  999.0,  999.0,  999.0,  999.0,  999.0,  999.0,  999.0,  999.0,  999.0,  999.0,  999.0,  999.0,  999.0,  999.0,  999.0,  999.0,  999.0,  999.0,  999.0,  999.0,  999.0,  999.0,  999.0,  999.0,  999.0,  999.0,  999.0,  999.0,  999.0,  999.0,  999.0,  999.0,  999.0,  999.0,  999.0,  999.0,  999.0,  999.0,  999.0,  999.0,  999.0
2000/09/16 12:40,  999.0,   -2.1,   -2.3,   -4.7,   -2.8,   -2.7,  999.0,   -3.5,   -3.3,   -3.0,   -2.3,   -1.5,   -1.8,   -1.0,   -0.7,   -0.5,    0.5,    0.7,    1.2,    4.2,    3.9,    5.2,    5.0,    5.7,    6.0,    6.3,    5.6,    5.9,    7.0,  999.0,  999.0,  999.0,  999.0,  999.0,  999.0,  999.0,  999.0,  999.0,  999.0,  999.0,  999.0,  999.0,  999.0,  999.0,  999.0,  999.0,  999.0,  999.0,  999.0,  999.0,  999.0,  999.0,  999.0,  999.0,  999.0,  999.0,  999.0,  999.0,  999.0,  999.0,  999.0,  999.0,  999.0
2000/09/16 12:50,  999.0,   -4.7,   -3.5,   -3.6,   -3.4,   -2.8,   -1.9,   -1.8,   -1.7,   -1.8,   -1.8,   -1.3,   -1.4,   -0.9,   -0.7,    0.3,    2.2,    2.1,    2.9,    3.9,    4.1,    4.1,    3.8,    3.8,  999.0,  999.0,  999.0,  999.0,  999.0,  999.0,  999.0,  999.0,  999.0,  999.0,  999.0,  999.0,  999.0,  999.0,  999.0,  999.0,  999.0,  999.0,  999.0,  999.0,  999.0,  999.0,  999.0,  999.0,  999.0,  999.0,  999.0,  999.0,  999.0,  999.0,  999.0,  999.0,  999.0,  999.0,  999.0,  999.0,  999.0,  999.0,  999.0
2000/09/16 13:00,    0.6,   -3.1,   -2.0,   -2.8,   -1.8,   -0.4,    0.1,   -0.7,   -1.5,   -1.7,   -1.1,   -0.2,    0.5,    0.5,    0.6,    0.7,    0.5,    1.4,    1.5,    1.9,    2.1,    2.5,    2.3,    2.0,    2.4,  999.0,  999.0,  999.0,  999.0,  999.0,  999.0,  999.0,  999.0,  999.0,  999.0,  999.0,  999.0,  999.0,  999.0,  999.0,  999.0,  999.0,  999.0,  999.0,  999.0,  999.0,  999.0,  999.0,  999.0,  999.0,  999.0,  999.0,  999.0,  999.0,  999.0,  999.0,  999.0,  999.0,  999.0,  999.0,  999.0,  999.0,  999.0
2000/09/16 13:10,    0.0,   -2.7,   -3.2,   -2.5,  999.0,   -0.7,   -0.7,   -0.7,    0.1,   -0.1,    0.5,    0.3,    0.0,   -0.4,   -0.7,   -0.4,    0.0,    0.6,    1.9,    2.6,    3.1,    3.4,    3.6,    3.0,    3.6,    4.1,  999.0,  999.0,  999.0,  999.0,  999.0,  999.0,  999.0,  999.0,  999.0,  999.0,  999.0,  999.0,  999.0,  999.0,  999.0,  999.0,  999.0,  999.0,  999.0,  999.0,  999.0,  999.0,  999.0,  999.0,  999.0,  999.0,  999.0,  999.0,  999.0,  999.0,  999.0,  999.0,  999.0,  999.0,  999.0,  999.0,  999.0
2000/09/16 13:20,  999.0,   -3.6,   -3.0,   -2.4,   -2.2,   -1.1,    0.1,   -0.7,    0.2,    0.9,    0.8,   -1.0,   -0.3,   -0.4,   -1.2,   -1.4,   -1.3,   -0.9,   -0.6,    0.6,    3.0,    4.4,    5.2,  999.0,  999.0,  999.0,  999.0,  999.0,  999.0,  999.0,  999.0,  999.0,  999.0,  999.0,  999.0,  999.0,  999.0,  999.0,  999.0,  999.0,  999.0,  999.0,  999.0,  999.0,  999.0,  999.0,  999.0,  999.0,  999.0,  999.0,  999.0,  999.0,  999.0,  999.0,  999.0,  999.0,  999.0,  999.0,  999.0,  999.0,  999.0,  999.0,  999.0
2000/09/16 13:30,   -1.2,   -4.4,   -3.0,   -4.2,  999.0,   -2.4,   -0.6,   -0.1,    2.0,    2.8,    2.2,    1.1,    1.4,    0.9,    0.5,    0.7,    0.0,   -0.1,    0.1,    3.5,    3.7,    3.6,  999.0,  999.0,  999.0,  999.0,  999.0,  999.0,  999.0,  999.0,  999.0,  999.0,  999.0,  999.0,  999.0,  999.0,  999.0,  999.0,  999.0,  999.0,  999.0,  999.0,  999.0,  999.0,  999.0,  999.0,  999.0,  999.0,  999.0,  999.0,  999.0,  999.0,  999.0,  999.0,  999.0,  999.0,  999.0,  999.0,  999.0,  999.0,  999.0,  999.0,  999.0
2000/09/16 13:40,   -2.0,   -3.7,   -3.7,   -2.2,   -1.1,   -0.3,    1.2,    3.1,    3.2,    3.2,    2.2,    1.4,    1.4,    0.6,   -0.5,   -0.8,   -1.1,   -0.6,    0.6,    2.3,    2.0,    3.0,    3.1,    4.7,  999.0,  999.0,  999.0,  999.0,  999.0,  999.0,  999.0,  999.0,  999.0,  999.0,  999.0,  999.0,  999.0,  999.0,  999.0,  999.0,  999.0,  999.0,  999.0,  999.0,  999.0,  999.0,  999.0,  999.0,  999.0,  999.0,  999.0,  999.0,  999.0,  999.0,  999.0,  999.0,  999.0,  999.0,  999.0,  999.0,  999.0,  999.0,  999.0
2000/09/16 13:50,  999.0,   -2.8,   -3.9,   -2.2,   -1.8,  999.0,    2.3,    2.9,    1.4,    0.9,    0.8,    0.5,    1.4,   -0.7,   -0.3,   -0.2,   -0.4,   -0.3,    1.0,    2.0,    2.2,    2.7,    1.0,  999.0,  999.0,  999.0,  999.0,  999.0,  999.0,  999.0,  999.0,  999.0,  999.0,  999.0,  999.0,  999.0,  999.0,  999.0,  999.0,  999.0,  999.0,  999.0,  999.0,  999.0,  999.0,  999.0,  999.0,  999.0,  999.0,  999.0,  999.0,  999.0,  999.0,  999.0,  999.0,  999.0,  999.0,  999.0,  999.0,  999.0,  999.0,  999.0,  999.0
2000/09/16 14:00,  999.0,   -4.8,   -3.7,   -4.0,   -1.8,    0.1,    1.3,    0.4,    2.0,    3.3,    2.2,    2.7,    2.1,    1.5,    1.8,    1.5,    1.6,    1.7,    0.8,    0.5,    0.4,    0.1,  999.0,  999.0,  999.0,  999.0,  999.0,  999.0,  999.0,  999.0,  999.0,  999.0,  999.0,  999.0,  999.0,  999.0,  999.0,  999.0,  999.0,  999.0,  999.0,  999.0,  999.0,  999.0,  999.0,  999.0,  999.0,  999.0,  999.0,  999.0,  999.0,  999.0,  999.0,  999.0,  999.0,  999.0,  999.0,  999.0,  999.0,  999.0,  999.0,  999.0,  999.0
2000/09/16 14:10,   -1.8,   -3.4,   -3.5,   -3.1,   -1.3,   -0.9,    1.5,    2.1,    4.1,    3.4,  999.0,    2.2,    1.6,    0.3,    0.3,    0.6,    0.7,    0.9,  999.0,  999.0,    1.3,  999.0,  999.0,  999.0,  999.0,  999.0,  999.0,  999.0,  999.0,  999.0,  999.0,  999.0,  999.0,  999.0,  999.0,  999.0,  999.0,  999.0,  999.0,  999.0,  999.0,  999.0,  999.0,  999.0,  999.0,  999.0,  999.0,  999.0,  999.0,  999.0,  999.0,  999.0,  999.0,  999.0,  999.0,  999.0,  999.0,  999.0,  999.0,  999.0,  999.0,  999.0,  999.0
2000/09/16 14:20,  999.0,   -2.9,   -3.7,   -3.5,   -1.5,    1.0,    2.4,    3.3,    3.6,    4.2,    4.1,    3.2,    2.5,    1.7,    0.3,    0.0,    0.2,    1.2,  999.0,  999.0,    2.5,    3.5,  999.0,  999.0,  999.0,  999.0,  999.0,  999.0,  999.0,  999.0,  999.0,  999.0,  999.0,  999.0,  999.0,  999.0,  999.0,  999.0,  999.0,  999.0,  999.0,  999.0,  999.0,  999.0,  999.0,  999.0,  999.0,  999.0,  999.0,  999.0,  999.0,  999.0,  999.0,  999.0,  999.0,  999.0,  999.0,  999.0,  999.0,  999.0,  999.0,  999.0,  999.0
2000/09/16 14:30,   -1.9,   -3.4,   -3.6,   -2.8,   -1.2,    1.6,    2.4,    3.0,    4.5,    4.4,    2.0,    0.7,   -0.1,   -0.3,    0.1,    0.1,    0.2,    0.0,    0.6,  999.0,  999.0,    1.2,    1.6,  999.0,  999.0,  999.0,  999.0,  999.0,  999.0,  999.0,  999.0,  999.0,  999.0,  999.0,  999.0,  999.0,  999.0,  999.0,  999.0,  999.0,  999.0,  999.0,  999.0,  999.0,  999.0,  999.0,  999.0,  999.0,  999.0,  999.0,  999.0,  999.0,  999.0,  999.0,  999.0,  999.0,  999.0,  999.0,  999.0,  999.0,  999.0,  999.0,  999.0
2000/09/16 14:40,   -2.0,   -3.6,   -3.4,   -2.7,    0.5,    2.2,    2.8,    2.9,    2.8,  999.0,    2.4,    2.0,    0.5,   -0.0,   -0.5,   -1.1,   -0.8,    0.3,  999.0,    1.3,    1.3,    1.2,   -0.0,  999.0,  999.0,  999.0,  999.0,  999.0,  999.0,  999.0,  999.0,  999.0,  999.0,  999.0,  999.0,  999.0,  999.0,  999.0,  999.0,  999.0,  999.0,  999.0,  999.0,  999.0,  999.0,  999.0,  999.0,  999.0,  999.0,  999.0,  999.0,  999.0,  999.0,  999.0,  999.0,  999.0,  999.0,  999.0,  999.0,  999.0,  999.0,  999.0,  999.0
2000/09/16 14:50,   -1.8,   -2.8,   -3.1,   -1.3,  999.0,    1.7,    2.3,    2.3,    1.3,    2.1,    1.7,    1.3,    0.9,    1.9,    1.3,    0.7,   -0.1,   -0.5,   -0.1,    0.0,    0.1,    0.8,  999.0,  999.0,  999.0,  999.0,  999.0,  999.0,  999.0,  999.0,  999.0,  999.0,  999.0,  999.0,  999.0,  999.0,  999.0,  999.0,  999.0,  999.0,  999.0,  999.0,  999.0,  999.0,  999.0,  999.0,  999.0,  999.0,  999.0,  999.0,  999.0,  999.0,  999.0,  999.0,  999.0,  999.0,  999.0,  999.0,  999.0,  999.0,  999.0,  999.0,  999.0
2000/09/16 15:00,   -1.2,   -3.3,   -3.3,   -2.4,   -0.1,    1.0,    1.5,    1.4,    2.8,    2.6,    3.1,    1.7,   -0.0,   -0.4,   -1.1,   -1.5,   -0.9,   -0.8,   -0.9,    0.6,    1.9,    3.5,    3.1,    3.4,  999.0,  999.0,  999.0,  999.0,  999.0,  999.0,  999.0,  999.0,  999.0,  999.0,  999.0,  999.0,  999.0,  999.0,  999.0,  999.0,  999.0,  999.0,  999.0,  999.0,  999.0,  999.0,  999.0,  999.0,  999.0,  999.0,  999.0,  999.0,  999.0,  999.0,  999.0,  999.0,  999.0,  999.0,  999.0,  999.0,  999.0,  999.0,  999.0
2000/09/16 15:10,   -2.3,   -4.3,   -4.1,   -1.3,  999.0,    0.7,    1.3,    1.6,    1.0,    0.6,    0.7,    0.1,   -0.2,    1.1,    0.4,    0.5,    1.0,    1.1,    1.3,    2.2,    3.2,    3.1,    2.4,  999.0,  999.0,  999.0,  999.0,  999.0,  999.0,  999.0,  999.0,  999.0,  999.0,  999.0,  999.0,  999.0,  999.0,  999.0,  999.0,  999.0,  999.0,  999.0,  999.0,  999.0,  999.0,  999.0,  999.0,  999.0,  999.0,  999.0,  999.0,  999.0,  999.0,  999.0,  999.0,  999.0,  999.0,  999.0,  999.0,  999.0,  999.0,  999.0,  999.0
2000/09/16 15:20,   -3.1,   -3.9,   -2.3,  999.0,   -0.4,    1.2,    2.0,    1.9,    0.6,    1.8,    1.8,    2.1,    2.3,    2.9,    1.8,    1.4,    0.9,    0.7,    0.6,    1.1,  999.0,    4.9,  999.0,  999.0,  999.0,  999.0,  999.0,  999.0,  999.0,    3.5,  999.0,    4.8,    4.6,    3.6,    1.5,    3.0,    3.0,    1.3,    2.9,  999.0,  999.0,  999.0,  999.0,  999.0,    4.7,  999.0,  999.0,  999.0,  999.0,  999.0,  999.0,  999.0,  999.0,  999.0,  999.0,  999.0,  999.0,  999.0,  999.0,  999.0,  999.0,  999.0,  999.0
2000/09/16 15:30,   -3.3,   -4.3,   -3.5,   -1.4,   -0.7,    0.6,    1.4,    1.5,    1.9,    1.8,    1.0,    0.6,    0.1,   -0.4,   -0.5,   -0.8,    0.0,    1.0,    2.1,    4.3,    4.5,    6.8,    6.7,  999.0,  999.0,  999.0,  999.0,  999.0,  999.0,  999.0,  999.0,  999.0,  999.0,  999.0,  999.0,  999.0,    3.9,    5.4,  999.0,  999.0,  999.0,  999.0,  999.0,  999.0,    5.8,  999.0,  999.0,  999.0,  999.0,  999.0,  999.0,  999.0,  999.0,  999.0,  999.0,  999.0,  999.0,  999.0,  999.0,  999.0,  999.0,  999.0,  999.0
2000/09/16 15:40,   -3.1,   -4.9,   -3.8,   -2.1,   -0.8,    0.4,    0.6,    0.0,    0.3,    7.2,    6.7,    9.2,    7.3,    5.2,    1.5,    2.3,    3.1,    4.9,  999.0,    3.8,    6.5,    9.3,   14.2,   12.2,   12.6,  999.0,   12.1,    9.5,  999.0,  999.0,  999.0,  999.0,  999.0,  999.0,  999.0,  999.0,  999.0,  999.0,  999.0,  999.0,  999.0,  999.0,  999.0,    9.4,  999.0,  999.0,  999.0,  999.0,  999.0,  999.0,  999.0,  999.0,  999.0,  999.0,  999.0,  999.0,  999.0,  999.0,  999.0,  999.0,  999.0,  999.0,  999.0
2000/09/16 15:50,   -2.4,   -5.1,   -3.4,  999.0,   -0.5,    1.0,    1.4,  999.0,   -2.0,    7.6,    3.6,    1.9,    0.7,    1.4,    3.6,    3.0,    4.1,    4.4,    5.3,    6.6,    7.8,   10.6,   11.9,   12.3,   16.5,   14.9,   13.5,    9.6,    9.1,    8.7,   10.1,   10.8,   10.4,    9.1,  999.0,  999.0,  999.0,  999.0,  999.0,  999.0,   10.1,    9.7,    8.7,    9.3,   10.3,  999.0,  999.0,  999.0,  999.0,  999.0,  999.0,  999.0,  999.0,  999.0,  999.0,  999.0,  999.0,  999.0,  999.0,  999.0,  999.0,  999.0,  999.0
2000/09/16 16:00,  999.0,   -6.1,   -4.1,   -2.6,   -1.9,   -0.7,    0.7,    0.8,   -0.3,   -2.3,   -1.6,   -0.7,   -0.2,    0.2,    1.2,    2.2,    2.4,    2.3,    2.8,    4.0,    4.3,    5.6,    6.1,    6.7,    7.1,    8.2,    7.7,    6.9,    7.0,    8.5,    9.5,   10.5,   10.9,   10.3,    8.6,  999.0,  999.0,  999.0,  999.0,   10.2,    9.2,  999.0,    8.5,    8.2,    7.8,  999.0,  999.0,  999.0,  999.0,  999.0,  999.0,  999.0,  999.0,  999.0,  999.0,  999.0,  999.0,  999.0,  999.0,  999.0,  999.0,  999.0,  999.0
2000/09/16 16:10,   -4.1,   -5.5,   -4.7,   -1.6,   -2.3,   -1.9,    1.7,    2.0,    2.4,    1.0,   -0.7,    0.2,    0.6,    1.7,    1.7,    1.9,    2.7,    3.4,    3.9,    3.4,    3.4,    3.7,    4.3,    4.4,    5.1,    5.9,    4.7,    3.5,    4.2,    4.7,    6.1,    6.6,    6.7,    7.5,    8.6,    8.9,    9.4,    9.9,  999.0,  999.0,  999.0,  999.0,  999.0,  999.0,  999.0,  999.0,  999.0,  999.0,  999.0,  999.0,  999.0,  999.0,  999.0,  999.0,  999.0,  999.0,  999.0,    2.9,    3.0,    3.9,    4.2,    4.8,  999.0
2000/09/16 16:20,   -4.3,   -5.3,   -2.4,   -1.4,    1.4,   -0.3,    1.3,    1.5,   -0.8,   -3.0,   -3.2,    1.4,   -2.5,    2.2,    1.2,    1.0,    0.5,    1.7,    5.4,    5.3,    6.8,    5.3,  999.0,  999.0,  999.0,  999.0,  999.0,  999.0,  999.0,  999.0,  999.0,  999.0,  999.0,  999.0,  999.0,  999.0,  999.0,  999.0,  999.0,  999.0,  999.0,  999.0,  999.0,  999.0,  999.0,  999.0,  999.0,  999.0,  999.0,  999.0,  999.0,  999.0,  999.0,  999.0,  999.0,  999.0,  999.0,    4.1,    3.0,    2.2,    2.6,    3.6,    3.6
2000/09/16 16:30,   -3.6,   -4.5,   -1.6,  999.0,   -1.2,  999.0,    0.4,    0.9,    0.6,   -0.6,   -1.4,  999.0,    2.2,    2.9,    7.3,    7.3,    7.5,    8.4,    8.2,    9.7,   10.4,   11.1,   12.5,  999.0,  999.0,  999.0,  999.0,  999.0,  999.0,  999.0,  999.0,  999.0,  999.0,  999.0,  999.0,  999.0,  999.0,  999.0,  999.0,    6.0,    7.7,    9.1,    9.5,   10.4,  999.0,  999.0,  999.0,  999.0,  999.0,  999.0,  999.0,  999.0,  999.0,  999.0,  999.0,  999.0,  999.0,  999.0,  999.0,  999.0,    3.0,  999.0,    3.5
2000/09/16 16:40,   -3.4,   -4.3,    5.4,  999.0,  999.0,    4.5,    5.8,  999.0,    2.4,    2.7,    2.5,  999.0,  999.0,   13.0,   13.4,   14.5,   15.4,   14.1,   13.4,   10.9,   10.5,   10.6,   13.3,  999.0,  999.0,  999.0,  999.0,  999.0,  999.0,  999.0,    1.9,    2.5,    1.2,  999.0,  999.0,  999.0,  999.0,    5.7,  999.0,  999.0,  999.0,  999.0,  999.0,  999.0,  999.0,  999.0,  999.0,  999.0,  999.0,  999.0,  999.0,  999.0,  999.0,  999.0,  999.0,  999.0,  999.0,  999.0,  999.0,  999.0,  999.0,    2.4,    2.2
2000/09/16 16:50,   -3.9,   -4.0,   -2.1,   -0.5,   -0.1,    2.1,    2.7,    7.2,    2.0,    2.2,    1.9,    3.2,    7.1,    7.6,    6.0,    6.4,    6.8,    7.4,    5.3,    4.9,    5.2,    9.3,   12.2,    9.6,    2.9,    2.8,    2.6,    1.6,    0.1,   -0.2,    0.2,    0.5,    1.0,    2.4,    2.9,    2.6,    4.5,  999.0,    4.5,  999.0,    6.0,    6.1,    6.5,    7.3,    8.2,  999.0,  999.0,  999.0,  999.0,  999.0,  999.0,  999.0,  999.0,  999.0,  999.0,  999.0,  999.0,  999.0,  999.0,  999.0,  999.0,  999.0,  999.0
2000/09/16 17:00,   -5.1,   -5.3,   -3.1,   -1.7,   -0.9,   -0.4,    0.2,   -0.3,   -0.1,   -0.2,    0.8,    1.7,    2.4,    2.1,    2.3,    2.7,    4.6,    5.2,    6.3,    7.3,    7.9,    7.6,    6.2,    4.7,    2.9,    2.6,    1.4,    1.5,    1.2,    0.8,    1.7,    2.4,    3.6,    5.9,    7.9,    8.5,    9.2,    9.1,    9.1,    7.6,    7.5,    7.5,    6.7,  999.0,    7.4,  999.0,  999.0,  999.0,  999.0,  999.0,  999.0,  999.0,  999.0,  999.0,  999.0,  999.0,  999.0,  999.0,  999.0,  999.0,  999.0,  999.0,  999.0
2000/09/16 17:10,   -5.5,   -5.5,   -3.7,   -2.0,   -1.3,   -0.5,   -0.4,    0.1,    1.2,    1.7,    2.2,    2.3,    2.6,    4.2,    4.7,    5.1,    5.9,    6.5,    7.2,    8.0,    8.3,    7.9,    7.4,    6.2,    4.6,    4.7,    4.7,    4.4,    5.5,    6.8,    8.2,    9.1,    9.9,   10.5,   11.3,   11.3,   10.8,   10.5,    9.8,    9.8,    9.4,    9.5,   10.0,   10.0,    9.9,    9.8,    9.2,    9.0,    8.9,    8.6,    8.2,    7.2,  999.0,  999.0,  999.0,  999.0,  999.0,  999.0,  999.0,  999.0,  999.0,  999.0,  999.0
2000/09/16 17:20,   -6.9,   -6.4,   -3.8,   -3.3,   -2.8,   -2.5,   -2.1,   -1.0,   -0.3,   -0.4,    0.5,   -0.1,   -0.2,    0.5,    1.3,    1.7,    1.2,    1.3,    0.8,    0.5,    2.1,    3.4,    4.0,    4.9,    6.0,    5.7,  999.0,    6.8,    7.1,    8.2,    8.9,   11.0,   11.9,   12.3,   12.5,   12.4,   12.4,   11.8,   11.0,   10.5,   10.0,    9.7,    9.7,    9.6,    9.8,    9.5,    9.3,    9.6,    9.2,    8.3,    7.7,    7.2,    7.1,    6.7,  999.0,    7.3,    6.4,    5.2,  999.0,  999.0,  999.0,  999.0,  999.0
2000/09/16 17:30,   -4.8,   -4.5,   -2.9,   -1.7,   -1.3,   -1.3,   -0.9,   -0.1,    0.9,    1.6,    1.5,    1.4,    0.2,   -0.9,   -1.0,   -0.6,    0.0,   -0.0,    1.4,    1.5,    2.7,    2.9,    3.9,    4.4,    4.6,    4.8,  999.0,    5.6,    6.8,    7.1,    7.1,    7.9,    9.6,    9.8,    9.2,    9.5,    9.8,    9.8,   10.2,   10.1,    9.7,   10.8,   11.1,   10.9,    9.8,    9.3,    9.1,    9.8,    9.8,    9.4,    8.5,    7.1,    5.7,    4.9,    4.9,    5.7,    6.2,    5.7,    4.7,    4.8,    4.9,    3.7,  999.0
2000/09/16 17:40,   -4.5,   -4.0,   -2.2,   -1.5,   -1.0,   -0.0,    0.5,    0.6,    1.0,    0.4,    0.0,    0.4,    1.0,    0.6,   -0.2,   -1.3,   -1.4,   -1.2,   -1.7,   -1.4,    0.1,    1.0,    2.1,    2.1,    3.2,    4.0,  999.0,  999.0,    6.7,    7.8,    8.4,    8.8,    9.1,    9.2,    9.4,   10.0,    9.5,    9.3,    8.9,    9.2,    9.3,   10.9,   13.1,   14.7,   14.8,   13.9,   13.0,   10.8,    9.5,    8.8,    8.0,    7.2,    5.8,    4.8,    4.2,    4.2,    4.4,    4.4,    4.3,    5.3,    3.9,    3.3,    4.4
2000/09/16 17:50,   -4.8,   -4.0,   -2.1,   -1.2,    0.0,   -0.5,   -0.2,    1.1,    2.1,    2.3,    1.8,    1.1,   -0.1,    0.9,    0.4,   -0.1,   -0.7,   -1.1,   -2.5,   -2.1,   -0.7,   -0.2,    1.1,    1.2,    2.6,    2.3,    3.2,    3.8,    6.7,    5.2,    6.2,    7.2,    8.3,  999.0,    9.8,    9.6,   10.2,   10.2,    9.7,    8.9,    8.5,    8.6,    9.0,   10.1,   10.9,   12.4,   13.2,   14.6,   14.5,   13.4,   10.1,    7.9,    7.0,    7.2,    7.1,    6.6,    6.0,    5.9,    5.9,    5.5,    5.1,    4.3,    4.5
2000/09/16 18:00,   -4.5,   -4.5,   -2.8,   -1.3,    0.2,    1.3,    2.4,    3.2,    3.2,    2.7,    2.5,    2.7,    2.3,    2.0,    2.0,    0.8,    1.4,    0.7,    0.1,   -0.5,   -0.6,   -0.9,   -0.2,    0.6,    2.0,    3.2,    3.5,    4.2,    5.3,    5.6,    5.9,    7.2,  999.0,  999.0,  999.0,  999.0,  999.0,  999.0,   10.6,  999.0,   11.3,  999.0,  999.0,   13.1,  999.0,  999.0,   15.0,   15.3,   14.8,   11.4,   10.2,    9.3,    8.8,    8.0,    7.3,    6.8,    5.8,    6.0,    5.4,    5.1,    5.2,    5.1,    5.7
2000/09/16 18:10,   -5.8,  -10.0,   -2.8,   -1.3,    0.3,    1.0,  999.0,    0.9,    2.2,  999.0,    1.3,   -2.8,   -2.0,    0.4,   -0.0,    0.5,   -0.1,    1.1,    0.5,    2.3,    1.4,   -1.9,  999.0,    0.9,    2.2,    3.4,    2.3,    3.6,    3.6,    1.7,    5.5,    6.1,    7.2,    8.2,   10.2,   10.0,    9.5,  999.0,  999.0,  999.0,  999.0,  999.0,  999.0,  999.0,  999.0,  999.0,  999.0,  999.0,    9.8,   10.7,   11.4,   12.1,   11.8,    9.5,    7.5,    7.0,    6.5,    5.2,    4.9,    5.0,    4.7,    5.1,    4.3
2000/09/16 18:20,   -3.5,   -5.3,   -4.4,   -2.9,   -0.5,   -0.3,    3.3,    2.1,    3.3,    0.9,    2.0,    2.8,    2.5,    3.1,    4.5,    3.6,    3.6,    7.4,    9.4,    9.3,   10.6,   13.6,   11.9,    9.0,    9.0,    6.3,    4.1,    5.0,    5.4,    5.3,    6.3,    6.9,    7.9,    9.2,    9.7,    9.1,    8.8,  999.0,  999.0,  999.0,  999.0,  999.0,  999.0,  999.0,  999.0,  999.0,  999.0,  999.0,  999.0,    6.8,    7.5,    8.1,    9.3,   10.1,   10.1,   10.0,    8.8,    7.2,    5.7,    5.0,    4.6,    4.4,    4.3
2000/09/16 18:30,   -6.7,   -6.1,   -3.6,   -1.3,    1.0,    2.8,    2.5,    3.9,    2.5,    1.9,    2.8,    3.9,    3.8,    1.9,    0.9,    1.3,    3.4,    4.4,    4.6,    5.4,    6.4,    7.9,    9.6,    9.1,    9.0,    4.8,    3.0,    4.7,    5.1,    3.6,    3.6,    3.9,    4.2,    6.1,    7.3,    7.9,    7.7,    7.0,    7.3,    7.4,  999.0,  999.0,  999.0,  999.0,  999.0,  999.0,  999.0,  999.0,  999.0,  999.0,    7.6,    7.5,    7.5,    7.9,    8.1,    8.6,    8.7,    8.1,    7.7,    7.2,    7.0,    6.7,    6.9
2000/09/16 18:40,   -6.1,   -4.1,   -2.3,   -2.3,   -0.9,    0.0,    1.1,    1.0,    1.2,    1.0,    0.7,    0.6,    0.3,    0.4,    0.5,    1.0,    1.6,    2.8,    3.9,    5.3,    6.3,    7.0,    6.9,    7.5,    7.5,    7.3,    7.9,    8.9,    8.8,    8.6,    8.7,    8.9,    9.3,    9.1,    9.6,    9.1,    9.2,    9.3,    9.3,    9.2,    9.0,    8.7,    8.3,    8.3,    8.2,    8.7,    8.9,    8.6,    8.3,    8.1,    8.5,    8.8,    8.6,    8.4,    8.1,    7.6,    6.2,    6.2,    6.0,    5.2,  999.0,    5.4,    5.7
2000/09/16 18:50,   -5.2,   -4.8,   -2.6,   -1.9,   -1.7,   -1.2,   -0.4,    0.6,    1.4,    1.0,    0.3,    0.1,   -0.6,   -0.2,    0.3,    0.7,    1.8,    2.5,    3.2,    3.5,    3.2,    3.1,    3.4,    4.4,    5.3,  999.0,  999.0,    9.3,   11.0,   11.5,   12.6,   13.5,   13.5,   13.4,   13.9,   13.7,   13.3,   12.6,   11.2,   11.4,   11.8,   10.9,    9.9,    8.9,    8.1,    7.8,    7.2,    7.2,    7.2,    7.4,    7.7,    7.6,    7.5,    7.5,  999.0,  999.0,  999.0,  999.0,  999.0,  999.0,  999.0,  999.0,  999.0
2000/09/16 19:00,   -4.2,   -4.1,   -2.2,   -1.0,   -0.4,   -0.7,    0.2,    1.5,    1.3,    1.6,    2.3,    2.4,    2.2,    1.8,    1.6,    1.7,    1.8,    2.2,    2.3,    2.7,    2.6,    2.0,    1.3,    1.6,    2.2,    2.5,    3.8,    5.1,    6.3,    8.3,    8.5,    9.5,   10.8,   11.9,   12.1,   12.1,   12.0,  999.0,  999.0,  999.0,   13.6,   15.2,   15.3,   14.1,   14.6,   13.7,   13.4,   11.6,   12.1,   10.2,   10.3,    9.2,    8.7,    8.0,    7.2,    6.8,    6.4,    6.2,    6.0,    5.9,    6.0,    6.2,    5.9
2000/09/16 19:10,  999.0,   -3.9,   -2.0,  999.0,  999.0,    0.0,   -0.6,  999.0,   -0.1,  999.0,  999.0,    0.4,    0.2,   -0.7,   -0.6,  999.0,  999.0,    0.6,    1.4,  999.0,    2.2,    1.2,    1.0,    1.9,  999.0,    4.5,  999.0,  999.0,  999.0,  999.0,  999.0,    6.8,    8.7,    8.9,    9.6,    8.6,  999.0,  999.0,   13.5,   13.6,   14.2,   14.3,   13.3,   13.1,   12.0,   10.4,    9.4,  999.0,    4.8,    5.0,    5.2,    7.7,    8.4,    8.0,    7.2,    7.1,    6.9,    6.9,    6.4,    6.1,    5.8,    5.8,    5.3
2000/09/16 19:20,   -2.9,   -3.5,   -1.2,   -2.0,   -1.3,    0.1,    1.4,    1.7,    1.2,    1.0,    1.2,    1.6,    1.7,    0.1,   -0.2,   -0.8,   -0.1,    0.3,    0.3,    1.5,    1.2,    2.1,    3.0,    3.6,    4.0,    4.0,    3.9,    4.4,  999.0,    5.0,  999.0,  999.0,  999.0,  999.0,    8.4,  999.0,  999.0,  999.0,  999.0,  999.0,  999.0,  999.0,  999.0,  999.0,  999.0,  999.0,  999.0,  999.0,  999.0,  999.0,   11.6,   11.5,   10.7,    9.3,    7.8,    5.6,    4.1,    3.6,    3.9,    3.8,    3.7,    3.9,    4.2
2000/09/16 19:30,   -3.4,   -4.2,   -2.3,   -2.3,   -1.8,    0.3,    0.1,    1.4,    2.8,    4.0,    3.8,    4.1,    2.9,    3.2,    2.2,    1.1,    0.9,    0.8,    2.2,    1.7,    1.5,    2.3,    3.6,    4.1,    3.6,    4.6,  999.0,    4.7,  999.0,  999.0,  999.0,  999.0,  999.0,  999.0,  999.0,  999.0,  999.0,  999.0,  999.0,  999.0,  999.0,  999.0,  999.0,  999.0,  999.0,  999.0,  999.0,  999.0,  999.0,  999.0,  999.0,  999.0,   10.9,   11.0,   10.6,    8.7,    6.0,    4.9,    4.5,    4.4,    4.3,    4.7,    5.2
2000/09/16 19:40,   -3.5,   -5.5,   -3.0,   -2.2,   -1.0,    0.0,    0.0,    1.4,    3.1,    4.3,    3.1,  999.0,    2.6,    2.7,    2.8,    1.8,    3.4,    4.2,    3.6,    2.6,    2.5,    2.3,    2.9,    2.0,    2.3,  999.0,  999.0,  999.0,    4.5,    5.3,    6.6,  999.0,  999.0,  999.0,  999.0,  999.0,  999.0,  999.0,  999.0,  999.0,  999.0,  999.0,  999.0,  999.0,  999.0,  999.0,  999.0,  999.0,  999.0,  999.0,  999.0,  999.0,  999.0,  999.0,  999.0,  999.0,    9.7,    7.0,  999.0,  999.0,  999.0,  999.0,  999.0
2000/09/16 19:50,   -4.5,   -5.6,   -3.7,   -1.3,  999.0,    0.3,    1.0,    1.9,    3.6,    4.0,    4.4,  999.0,    4.2,    3.2,    1.6,    1.1,    0.8,    0.1,    1.6,  999.0,  999.0,  999.0,    2.3,    2.5,  999.0,  999.0,  999.0,    2.5,  999.0,    6.7,  999.0,  999.0,  999.0,  999.0,  999.0,  999.0,  999.0,  999.0,  999.0,  999.0,  999.0,  999.0,  999.0,  999.0,  999.0,  999.0,  999.0,  999.0,  999.0,  999.0,  999.0,  999.0,  999.0,  999.0,  999.0,  999.0,  999.0,  999.0,  999.0,  999.0,  999.0,  999.0,  999.0
2000/09/16 20:00,   -4.7,   -5.2,   -2.9,   -1.9,   -0.6,    0.7,    1.5,    3.0,    3.5,    3.5,    3.7,    3.9,    3.2,    2.3,  999.0,    2.1,    1.6,    1.6,  999.0,    1.5,    2.3,    1.8,    1.5,    0.9,  999.0,  999.0,  999.0,  999.0,  999.0,  999.0,  999.0,  999.0,  999.0,  999.0,  999.0,  999.0,  999.0,  999.0,  999.0,  999.0,  999.0,  999.0,  999.0,  999.0,  999.0,  999.0,  999.0,  999.0,  999.0,  999.0,  999.0,  999.0,  999.0,  999.0,  999.0,  999.0,  999.0,  999.0,  999.0,  999.0,  999.0,  999.0,  999.0
2000/09/16 20:10,   -4.2,   -5.0,   -2.9,    0.0,   -0.2,    0.7,    2.0,    3.0,  999.0,    3.7,    2.7,    3.1,    2.5,    3.0,    2.7,  999.0,    2.7,    2.1,    2.7,    3.1,  999.0,  999.0,    0.9,  999.0,    0.0,  999.0,  999.0,  999.0,    2.9,  999.0,  999.0,  999.0,  999.0,  999.0,  999.0,  999.0,  999.0,  999.0,  999.0,  999.0,  999.0,  999.0,  999.0,  999.0,  999.0,  999.0,  999.0,  999.0,  999.0,  999.0,  999.0,  999.0,  999.0,  999.0,  999.0,  999.0,  999.0,  999.0,  999.0,  999.0,  999.0,  999.0,  999.0
2000/09/16 20:20,   -4.0,  999.0,   -3.2,   -1.4,    0.4,    0.7,    2.0,    3.7,    3.3,    1.8,    1.7,    2.5,    3.3,    3.0,    2.0,    1.8,    1.3,  999.0,  999.0,   -0.3,   -1.0,  999.0,  999.0,  999.0,  999.0,    1.6,    2.2,    4.0,    4.5,    4.4,  999.0,  999.0,  999.0,  999.0,  999.0,  999.0,  999.0,  999.0,  999.0,  999.0,  999.0,  999.0,  999.0,  999.0,  999.0,  999.0,  999.0,  999.0,  999.0,  999.0,  999.0,  999.0,  999.0,  999.0,  999.0,  999.0,  999.0,  999.0,  999.0,  999.0,  999.0,  999.0,  999.0
2000/09/16 20:30,   -3.9,   -4.1,   -2.4,   -1.0,    0.2,    1.4,    1.8,    2.4,    0.4,    1.9,    2.6,    1.9,    1.9,  999.0,  999.0,   -1.0,  999.0,   -0.1,    1.1,    2.1,    1.6,  999.0,    2.0,    2.0,  999.0,  999.0,  999.0,  999.0,    4.1,  999.0,  999.0,  999.0,  999.0,  999.0,  999.0,  999.0,  999.0,  999.0,  999.0,  999.0,  999.0,  999.0,  999.0,  999.0,  999.0,  999.0,  999.0,  999.0,  999.0,  999.0,  999.0,  999.0,  999.0,  999.0,  999.0,  999.0,  999.0,  999.0,  999.0,  999.0,  999.0,  999.0,  999.0
2000/09/16 20:40,   -3.8,  999.0,   -2.3,  999.0,    0.0,    1.1,    1.4,    0.5,    0.5,    1.4,    2.4,    1.8,    1.5,  999.0,  999.0,  999.0,  999.0,  999.0,  999.0,  999.0,  999.0,  999.0,  999.0,  999.0,  999.0,  999.0,  999.0,    3.7,    3.7,    4.7,  999.0,  999.0,  999.0,  999.0,  999.0,  999.0,    7.6,    8.2,  999.0,  999.0,  999.0,  999.0,  999.0,  999.0,  999.0,  999.0,  999.0,  999.0,  999.0,  999.0,  999.0,  999.0,  999.0,  999.0,  999.0,  999.0,  999.0,  999.0,  999.0,  999.0,  999.0,  999.0,  999.0
2000/09/16 20:50,   -3.5,   -2.9,  999.0,   -0.4,    0.3,    1.1,    2.1,    1.4,    2.2,    2.5,    2.6,    2.7,  999.0,  999.0,    1.9,  999.0,    2.7,  999.0,  999.0,  999.0,    0.5,    0.9,    0.6,    0.4,    0.3,    0.6,    2.3,    2.9,  999.0,    3.9,    6.1,    6.9,    7.3,  999.0,    7.4,  999.0,  999.0,    7.3,  999.0,  999.0,  999.0,  999.0,  999.0,  999.0,  999.0,  999.0,  999.0,  999.0,  999.0,  999.0,  999.0,  999.0,  999.0,  999.0,  999.0,  999.0,  999.0,  999.0,  999.0,  999.0,  999.0,  999.0,  999.0
2000/09/16 21:00,   -3.2,   -2.6,  999.0,  999.0,   -0.1,  999.0,   -0.5,   -0.8,    0.5,   -0.1,  999.0,  999.0,    0.1,    1.7,    0.6,    0.5,    0.9,    1.6,    1.3,    1.3,    0.5,   -0.2,   -0.4,   -0.8,  999.0,    0.3,    1.8,    2.8,    3.3,    4.1,    4.6,    5.7,    6.5,  999.0,  999.0,  999.0,  999.0,    9.3,  999.0,  999.0,  999.0,  999.0,  999.0,  999.0,  999.0,  999.0,  999.0,  999.0,  999.0,  999.0,  999.0,  999.0,  999.0,  999.0,  999.0,  999.0,  999.0,  999.0,  999.0,  999.0,  999.0,  999.0,  999.0
2000/09/16 21:10,   -3.3,   -2.8,   -1.2,  999.0,   -0.6,  999.0,    0.1,    1.9,    2.4,    2.3,    2.6,  999.0,  999.0,    1.1,    1.5,    2.0,    1.3,    2.0,    1.3,    1.1,    0.3,   -0.1,  999.0,  999.0,    2.4,    2.0,    1.5,    1.3,    4.3,  999.0,    6.7,    7.8,    8.0,    8.6,    8.8,    9.6,    9.9,   10.2,  999.0,  999.0,  999.0,  999.0,  999.0,  999.0,  999.0,  999.0,  999.0,  999.0,  999.0,  999.0,  999.0,  999.0,  999.0,  999.0,  999.0,  999.0,  999.0,  999.0,  999.0,  999.0,  999.0,  999.0,  999.0
2000/09/16 21:20,   -2.1,   -2.9,   -1.6,   -1.6,   -0.2,    1.4,    0.3,    0.9,    0.3,    2.0,    2.4,    2.7,    1.8,    1.5,    2.1,    3.0,    2.7,    0.3,   -0.7,   -1.2,  999.0,  999.0,  999.0,   -2.6,    0.0,    2.4,    4.1,    5.2,    6.2,    7.6,    7.7,  999.0,  999.0,  999.0,  999.0,  999.0,  999.0,  999.0,  999.0,  999.0,  999.0,  999.0,  999.0,  999.0,  999.0,  999.0,  999.0,  999.0,  999.0,  999.0,  999.0,  999.0,  999.0,  999.0,  999.0,  999.0,  999.0,  999.0,  999.0,  999.0,  999.0,  999.0,  999.0
2000/09/16 21:30,    0.9,   -1.3,    1.2,    0.4,    0.5,    0.5,    0.6,    1.6,    1.5,    2.3,    2.0,    3.0,    3.2,    2.7,    3.5,  999.0,    1.4,    0.1,   -1.1,   -1.0,  999.0,   -0.3,   -0.9,  999.0,  999.0,    3.7,    5.1,    5.4,    5.8,    6.6,    7.0,    6.3,  999.0,  999.0,    8.2,  999.0,  999.0,  999.0,  999.0,  999.0,  999.0,  999.0,  999.0,  999.0,  999.0,  999.0,  999.0,  999.0,  999.0,  999.0,  999.0,  999.0,  999.0,  999.0,  999.0,  999.0,  999.0,  999.0,  999.0,  999.0,  999.0,  999.0,  999.0
2000/09/16 21:40,   -2.4,  999.0,    1.1,    0.1,    1.2,    0.5,    2.5,    2.6,    3.3,    3.4,    3.5,    2.2,    1.1,    0.3,   -0.7,    0.5,    0.4,   -0.0,    1.3,    1.5,  999.0,    2.0,  999.0,    2.2,    2.0,    2.8,    4.0,    5.3,    5.2,    5.2,    5.8,    5.6,    5.4,    5.4,    5.2,  999.0,  999.0,  999.0,  999.0,  999.0,  999.0,  999.0,  999.0,  999.0,  999.0,  999.0,  999.0,  999.0,  999.0,  999.0,  999.0,  999.0,  999.0,  999.0,  999.0,  999.0,  999.0,  999.0,  999.0,  999.0,  999.0,  999.0,  999.0
2000/09/16 21:50,   -3.1,   -0.1,   -1.6,   -0.7,   -1.3,    2.2,    1.8,    3.2,    3.4,    3.4,    1.1,    0.5,   -0.0,    0.5,    1.3,    2.4,    2.0,    1.8,  999.0,  999.0,    0.0,   -1.3,   -1.0,  999.0,   -0.1,    1.2,    2.9,    3.7,    4.8,    6.0,    5.7,    5.4,    5.4,    5.8,    6.6,    6.4,  999.0,  999.0,  999.0,  999.0,  999.0,  999.0,  999.0,  999.0,  999.0,  999.0,  999.0,  999.0,  999.0,  999.0,  999.0,  999.0,  999.0,  999.0,  999.0,  999.0,  999.0,  999.0,  999.0,  999.0,  999.0,  999.0,  999.0
2000/09/16 22:00,   -3.8,   -1.5,   -0.6,    3.0,    4.7,    1.7,    7.7,    0.2,   -2.0,   -3.5,   -3.4,   -2.3,   -0.5,   -1.0,   -1.2,   -2.3,  999.0,   -2.9,   -7.6,   -6.3,   -6.9,   -8.3,   -7.6,   -4.5,   -2.3,   -4.4,  999.0,  999.0,    4.2,    0.6,    2.0,    2.9,    3.6,    5.9,    6.9,    6.9,  999.0,  999.0,  999.0,  999.0,  999.0,  999.0,  999.0,  999.0,  999.0,  999.0,  999.0,  999.0,  999.0,  999.0,  999.0,  999.0,  999.0,  999.0,  999.0,  999.0,  999.0,  999.0,  999.0,  999.0,  999.0,  999.0,  999.0
2000/09/16 22:10,   -3.0,   -3.1,   -1.1,    0.7,   -0.8,    1.1,    1.1,   -2.0,   -1.2,    0.4,    0.1,    1.4,    0.6,    0.1,   -1.9,   -1.7,    0.1,    1.0,    3.9,    4.5,    3.7,    3.3,    2.1,    2.8,    3.0,    1.7,    1.4,    4.4,    2.4,    5.7,    6.1,    5.1,    5.5,    6.2,    5.3,    4.2,    5.4,    6.3,  999.0,  999.0,  999.0,  999.0,  999.0,  999.0,  999.0,  999.0,  999.0,  999.0,  999.0,  999.0,  999.0,  999.0,  999.0,  999.0,  999.0,  999.0,  999.0,  999.0,  999.0,  999.0,  999.0,  999.0,  999.0
2000/09/16 22:20,   -2.6,   -0.3,    0.3,    0.6,    1.7,    2.3,    1.9,    1.1,    2.6,    3.4,    4.4,    4.0,    4.0,    3.1,    3.4,    2.9,    2.7,    1.0,    1.4,    1.3,   -0.1,    0.4,    1.1,  999.0,  999.0,  999.0,  999.0,  999.0,    4.6,    4.7,    4.9,  999.0,    4.2,    5.3,    4.5,    4.1,    6.5,    6.8,  999.0,  999.0,  999.0,  999.0,  999.0,  999.0,  999.0,  999.0,  999.0,  999.0,  999.0,  999.0,  999.0,  999.0,  999.0,  999.0,  999.0,  999.0,  999.0,  999.0,  999.0,  999.0,  999.0,  999.0,  999.0
2000/09/16 22:30,   -1.7,   -1.3,    0.2,    1.1,    1.8,    2.1,    1.5,    0.9,    2.3,    3.5,    4.0,    4.9,    5.4,    4.6,    5.0,    4.6,    3.7,    4.4,    3.8,    3.2,    3.3,    3.4,    3.3,    3.6,    3.7,    3.8,    4.2,  999.0,  999.0,  999.0,  999.0,  999.0,    4.7,    4.3,  999.0,  999.0,  999.0,    6.4,  999.0,  999.0,  999.0,  999.0,  999.0,  999.0,  999.0,  999.0,  999.0,  999.0,  999.0,  999.0,  999.0,  999.0,  999.0,  999.0,  999.0,  999.0,  999.0,  999.0,  999.0,  999.0,  999.0,  999.0,  999.0
2000/09/16 22:40,   -1.4,    1.8,    0.9,    4.0,    4.5,    5.6,    4.2,    4.1,    4.7,    4.0,    4.5,    4.3,    4.5,    4.7,    4.0,    4.0,    2.8,    2.9,    4.1,    2.7,    3.6,    4.0,    5.2,  999.0,    2.8,  999.0,    4.8,  999.0,  999.0,  999.0,    2.0,    2.3,    2.2,  999.0,  999.0,  999.0,  999.0,  999.0,  999.0,  999.0,  999.0,  999.0,  999.0,  999.0,  999.0,  999.0,  999.0,  999.0,  999.0,  999.0,  999.0,  999.0,  999.0,  999.0,  999.0,  999.0,  999.0,  999.0,  999.0,  999.0,  999.0,  999.0,  999.0
2000/09/16 22:50,   -0.8,    1.9,    3.1,    4.1,    3.3,    3.2,    1.7,    1.3,    2.2,    1.7,    4.9,    4.5,    5.2,    6.7,    6.3,    6.3,    6.1,    4.4,    2.5,    1.6,    1.8,    2.2,    2.8,  999.0,  999.0,  999.0,    4.5,  999.0,  999.0,  999.0,    2.8,    3.3,  999.0,  999.0,  999.0,  999.0,  999.0,  999.0,  999.0,  999.0,  999.0,  999.0,  999.0,  999.0,  999.0,  999.0,  999.0,  999.0,  999.0,  999.0,  999.0,  999.0,  999.0,  999.0,  999.0,  999.0,  999.0,  999.0,  999.0,  999.0,  999.0,  999.0,  999.0
2000/09/16 23:00,   -1.0,    0.9,    1.7,    1.8,    1.4,    1.3,    1.1,    1.6,    1.7,    2.7,    3.5,    4.8,    5.4,    5.4,    6.0,    5.8,    4.1,    3.4,    1.0,    1.6,    2.5,  999.0,    2.4,  999.0,  999.0,    5.1,    5.2,  999.0,  999.0,    3.8,    3.9,  999.0,  999.0,  999.0,  999.0,  999.0,  999.0,  999.0,  999.0,  999.0,  999.0,  999.0,  999.0,  999.0,  999.0,  999.0,  999.0,  999.0,  999.0,  999.0,  999.0,  999.0,  999.0,  999.0,  999.0,  999.0,  999.0,  999.0,  999.0,  999.0,  999.0,  999.0,  999.0
2000/09/16 23:10,    0.1,    0.4,    2.1,    1.7,    2.3,    2.1,    0.8,    0.1,    2.3,    3.8,    3.5,    6.5,    7.2,    4.8,    3.4,    2.8,    1.8,    1.1,   -0.5,    0.1,    1.4,  999.0,    2.0,  999.0,  999.0,  999.0,  999.0,  999.0,  999.0,  999.0,  999.0,  999.0,  999.0,  999.0,  999.0,  999.0,  999.0,  999.0,  999.0,  999.0,  999.0,  999.0,  999.0,  999.0,  999.0,  999.0,  999.0,  999.0,  999.0,  999.0,  999.0,  999.0,  999.0,  999.0,  999.0,  999.0,  999.0,  999.0,  999.0,  999.0,  999.0,  999.0,  999.0
2000/09/16 23:20,    3.5,    3.1,    2.7,    0.8,    2.3,   -0.8,    0.9,    1.6,    2.0,    2.2,    3.1,    3.2,    3.8,    2.1,    3.9,   -0.6,    1.0,   -1.2,   -2.2,   -0.6,    0.8,    1.8,  999.0,  999.0,  999.0,  999.0,  999.0,  999.0,  999.0,  999.0,  999.0,  999.0,  999.0,  999.0,  999.0,  999.0,  999.0,  999.0,  999.0,  999.0,  999.0,  999.0,  999.0,  999.0,  999.0,  999.0,  999.0,  999.0,  999.0,  999.0,  999.0,  999.0,  999.0,  999.0,  999.0,  999.0,  999.0,  999.0,  999.0,  999.0,  999.0,  999.0,  999.0
2000/09/16 23:30,    3.1,    6.1,    6.5,    4.1,    0.7,    6.4,    0.7,    1.5,    1.1,    1.8,    2.3,    3.6,    4.8,    4.8,  999.0,  999.0,  999.0,    0.2,  999.0,  999.0,  999.0,  999.0,  999.0,    4.9,  999.0,  999.0,  999.0,  999.0,  999.0,  999.0,  999.0,  999.0,  999.0,  999.0,  999.0,  999.0,  999.0,  999.0,  999.0,  999.0,  999.0,  999.0,  999.0,  999.0,  999.0,  999.0,  999.0,  999.0,  999.0,  999.0,  999.0,  999.0,  999.0,  999.0,  999.0,  999.0,  999.0,  999.0,  999.0,  999.0,  999.0,  999.0,  999.0
2000/09/16 23:40,    4.5,    5.7,    6.3,    2.3,    1.0,    1.3,    2.2,    2.7,    4.8,    3.2,    3.5,    3.7,    4.2,    2.9,    1.8,    1.7,    4.1,    1.0,    0.3,    1.0,    1.8,  999.0,  999.0,    4.7,  999.0,  999.0,  999.0,  999.0,  999.0,  999.0,  999.0,  999.0,  999.0,  999.0,  999.0,  999.0,  999.0,  999.0,  999.0,  999.0,  999.0,  999.0,  999.0,  999.0,  999.0,  999.0,  999.0,  999.0,  999.0,  999.0,  999.0,  999.0,  999.0,  999.0,  999.0,  999.0,  999.0,  999.0,  999.0,  999.0,  999.0,  999.0,  999.0
2000/09/16 23:50,    4.2,    6.9,    7.1,    5.5,    3.9,    1.3,    1.4,    2.2,    2.9,    2.9,    2.7,    3.8,    4.8,    5.0,    3.9,  999.0,  999.0,    0.4,    0.0,  999.0,    2.1,  999.0,  999.0,  999.0,  999.0,  999.0,  999.0,  999.0,  999.0,  999.0,  999.0,  999.0,  999.0,  999.0,  999.0,  999.0,  999.0,  999.0,  999.0,  999.0,  999.0,  999.0,  999.0,  999.0,  999.0,  999.0,  999.0,  999.0,  999.0,  999.0,  999.0,  999.0,  999.0,  999.0,  999.0,  999.0,  999.0,  999.0,  999.0,  999.0,  999.0,  999.0,  999.0
